Time,TemperatureF,DewpointF,PressureIn,WindDirection,WindDirectionDegrees,WindSpeedMPH,WindSpeedGustMPH,Humidity,HourlyPrecipIn,Conditions,Clouds,dailyrainin,SoftwareType,DateUTC
2014-01-16 00:00:00,40.6,28.6,29.83,West,270,3.0,4.0,62,0.00,,---,0.00,VWS V15.00,2014-01-16 06:00:00,
2014-01-16 00:10:00,41.1,28.3,29.83,West,270,2.0,4.0,60,0.00,,---,0.00,VWS V15.00,2014-01-16 06:10:00,
2014-01-16 00:20:00,41.9,27.4,29.83,WNW,292,3.0,6.0,56,0.00,,---,0.00,VWS V15.00,2014-01-16 06:20:00,
2014-01-16 00:30:00,43.1,27.1,29.83,WNW,292,4.0,9.0,53,0.00,,---,0.00,VWS V15.00,2014-01-16 06:30:00,
2014-01-16 00:40:00,43.3,27.3,29.83,WNW,292,6.0,10.0,53,0.00,,---,0.00,VWS V15.00,2014-01-16 06:40:00,
2014-01-16 00:50:00,42.9,27.0,29.84,WNW,292,6.0,10.0,53,0.00,,---,0.00,VWS V15.00,2014-01-16 06:50:00,
2014-01-16 01:00:00,42.9,27.0,29.84,WNW,292,6.0,11.0,53,0.00,,---,0.00,VWS V15.00,2014-01-16 07:00:00,
2014-01-16 01:10:00,42.6,27.1,29.84,WNW,292,7.0,13.0,54,0.00,,---,0.00,VWS V15.00,2014-01-16 07:10:00,
2014-01-16 01:20:00,42.3,26.9,29.84,WNW,292,10.0,16.0,54,0.00,,---,0.00,VWS V15.00,2014-01-16 07:20:00,
2014-01-16 01:30:00,42.2,27.6,29.84,WNW,292,8.0,14.0,56,0.00,,---,0.00,VWS V15.00,2014-01-16 07:30:00,
2014-01-16 01:40:00,42.5,27.5,29.84,WNW,292,7.0,13.0,55,0.00,,---,0.00,VWS V15.00,2014-01-16 07:40:00,
2014-01-16 01:50:00,42.5,27.5,29.84,NW,315,6.0,14.0,55,0.00,,---,0.00,VWS V15.00,2014-01-16 07:50:00,
2014-01-16 02:00:00,41.9,27.8,29.86,WNW,292,6.0,13.0,57,0.00,,---,0.00,VWS V15.00,2014-01-16 08:00:00,
2014-01-16 02:10:00,41.3,27.6,29.86,WNW,292,5.0,10.0,58,0.00,,---,0.00,VWS V15.00,2014-01-16 08:10:00,
2014-01-16 02:20:00,40.9,27.7,29.85,WNW,292,4.0,7.0,59,0.00,,---,0.00,VWS V15.00,2014-01-16 08:20:00,
2014-01-16 02:30:00,40.8,27.6,29.85,WNW,292,3.0,5.0,59,0.00,,---,0.00,VWS V15.00,2014-01-16 08:30:00,
2014-01-16 02:40:00,40.9,27.7,29.85,WNW,292,4.0,6.0,59,0.00,,---,0.00,VWS V15.00,2014-01-16 08:40:00,
2014-01-16 02:50:00,40.2,27.4,29.87,WNW,292,3.0,5.0,60,0.00,,---,0.00,VWS V15.00,2014-01-16 08:50:00,
2014-01-16 03:00:00,39.5,27.6,29.88,WNW,292,4.0,7.0,62,0.00,,---,0.00,VWS V15.00,2014-01-16 09:00:00,
2014-01-16 03:10:00,38.2,27.1,29.88,WNW,292,3.0,5.0,64,0.00,,---,0.00,VWS V15.00,2014-01-16 09:10:00,
2014-01-16 03:20:00,36.6,27.0,29.89,West,270,4.0,5.0,68,0.00,,---,0.00,VWS V15.00,2014-01-16 09:20:00,
2014-01-16 03:30:00,36.5,27.0,29.89,West,270,4.0,5.0,68,0.00,,---,0.00,VWS V15.00,2014-01-16 09:30:00,
2014-01-16 03:40:00,36.0,27.2,29.89,WSW,248,4.0,6.0,70,0.00,,---,0.00,VWS V15.00,2014-01-16 09:40:00,
2014-01-16 03:50:00,35.6,26.8,29.89,WSW,248,4.0,5.0,70,0.00,,---,0.00,VWS V15.00,2014-01-16 09:50:00,
2014-01-16 04:00:00,35.8,27.3,29.89,WNW,292,3.0,6.0,71,0.00,,---,0.00,VWS V15.00,2014-01-16 10:00:00,
2014-01-16 04:10:00,36.5,27.3,29.89,WNW,292,3.0,5.0,69,0.00,,---,0.00,VWS V15.00,2014-01-16 10:10:00,
2014-01-16 04:20:00,36.0,27.2,29.88,West,270,4.0,5.0,70,0.00,,---,0.00,VWS V15.00,2014-01-16 10:20:00,
2014-01-16 04:30:00,35.5,27.4,29.88,WSW,248,3.0,5.0,72,0.00,,---,0.00,VWS V15.00,2014-01-16 10:30:00,
2014-01-16 04:40:00,35.9,27.4,29.88,WNW,292,3.0,10.0,71,0.00,,---,0.00,VWS V15.00,2014-01-16 10:40:00,
2014-01-16 04:50:00,36.9,27.3,29.87,West,270,4.0,7.0,68,0.00,,---,0.00,VWS V15.00,2014-01-16 10:50:00,
2014-01-16 05:00:00,37.2,26.9,29.88,West,270,6.0,11.0,66,0.00,,---,0.00,VWS V15.00,2014-01-16 11:00:00,
2014-01-16 05:10:00,36.9,27.0,29.88,West,270,6.0,10.0,67,0.00,,---,0.00,VWS V15.00,2014-01-16 11:10:00,
2014-01-16 05:20:00,35.6,26.8,29.89,West,270,6.0,9.0,70,0.00,,---,0.00,VWS V15.00,2014-01-16 11:20:00,
2014-01-16 05:30:00,35.5,26.7,29.89,West,270,5.0,7.0,70,0.00,,---,0.00,VWS V15.00,2014-01-16 11:30:00,
2014-01-16 05:40:00,36.6,26.7,29.89,West,270,5.0,9.0,67,0.00,,---,0.00,VWS V15.00,2014-01-16 11:40:00,
2014-01-16 05:50:00,37.6,26.2,29.90,West,270,6.0,14.0,63,0.00,,---,0.00,VWS V15.00,2014-01-16 11:50:00,
2014-01-16 06:00:00,39.3,25.8,29.90,WNW,292,10.0,17.0,58,0.00,,---,0.00,VWS V15.00,2014-01-16 12:00:00,
2014-01-16 06:10:00,40.5,26.0,29.90,WNW,292,11.0,20.0,56,0.00,,---,0.00,VWS V15.00,2014-01-16 12:10:00,
2014-01-16 06:20:00,40.2,25.8,29.91,WNW,286,8.0,11.0,56,0.00,,---,0.00,VWS V15.00,2014-01-16 12:20:00,
2014-01-16 06:21:00,40.2,25.8,29.91,WNW,286,8.0,11.0,56,0.00,,---,0.00,VWS V15.00,2014-01-16 12:21:00,
2014-01-16 06:26:00,39.9,25.9,29.91,West,271,9.0,16.0,57,0.00,,---,0.00,VWS V15.00,2014-01-16 12:26:00,
2014-01-16 06:30:00,39.6,26.1,29.91,West,281,7.0,12.0,58,0.00,,---,0.00,VWS V15.00,2014-01-16 12:30:00,
2014-01-16 06:31:00,39.5,26.0,29.91,West,269,5.0,12.0,58,0.00,,---,0.00,VWS V15.00,2014-01-16 12:31:00,
2014-01-16 06:36:00,39.3,26.2,29.91,West,281,13.0,15.0,59,0.00,,---,0.00,VWS V15.00,2014-01-16 12:36:00,
2014-01-16 06:40:00,39.3,26.2,29.91,WNW,292,8.0,15.0,59,0.00,,---,0.00,VWS V15.00,2014-01-16 12:40:00,
2014-01-16 06:41:00,39.3,26.2,29.91,WNW,286,14.0,14.0,59,0.00,,---,0.00,VWS V15.00,2014-01-16 12:41:00,
2014-01-16 06:46:00,39.5,26.0,29.93,WNW,284,6.0,19.0,58,0.00,,---,0.00,VWS V15.00,2014-01-16 12:46:00,
2014-01-16 06:50:00,39.9,25.9,29.93,WNW,292,9.0,19.0,57,0.00,,---,0.00,VWS V15.00,2014-01-16 12:50:00,
2014-01-16 06:51:00,39.9,25.9,29.93,West,273,5.0,16.0,57,0.00,,---,0.00,VWS V15.00,2014-01-16 12:51:00,
2014-01-16 06:56:00,40.2,25.8,29.93,WNW,282,13.0,19.0,56,0.00,,---,0.00,VWS V15.00,2014-01-16 12:56:00,
2014-01-16 07:00:00,40.6,25.7,29.93,WNW,292,9.0,19.0,55,0.00,,---,0.00,VWS V15.00,2014-01-16 13:00:00,
2014-01-16 07:01:00,40.6,25.7,29.93,WNW,289,9.0,10.0,55,0.00,,---,0.00,VWS V15.00,2014-01-16 13:01:00,
2014-01-16 07:02:00,40.5,26.0,29.93,WNW,287,7.0,10.0,56,0.00,,---,0.00,VWS V15.00,2014-01-16 13:02:00,
2014-01-16 07:06:00,40.1,26.1,29.93,West,277,7.0,15.0,57,0.00,,---,0.00,VWS V15.00,2014-01-16 13:06:00,
2014-01-16 07:07:00,39.9,25.9,29.93,West,272,7.0,15.0,57,0.00,,---,0.00,VWS V15.00,2014-01-16 13:07:00,
2014-01-16 07:10:00,39.6,26.1,29.93,West,270,7.0,15.0,58,0.00,,---,0.00,VWS V15.00,2014-01-16 13:10:00,
2014-01-16 07:11:00,39.6,26.1,29.93,West,276,5.0,11.0,58,0.00,,---,0.00,VWS V15.00,2014-01-16 13:11:00,
2014-01-16 07:12:00,39.5,26.4,29.93,West,281,6.0,11.0,59,0.00,,---,0.00,VWS V15.00,2014-01-16 13:12:00,
2014-01-16 07:16:00,39.3,26.2,29.94,West,271,4.0,14.0,59,0.00,,---,0.00,VWS V15.00,2014-01-16 13:16:00,
2014-01-16 07:17:00,39.3,26.2,29.94,West,264,6.0,14.0,59,0.00,,---,0.00,VWS V15.00,2014-01-16 13:17:00,
2014-01-16 07:20:00,39.2,26.1,29.94,West,270,6.0,14.0,59,0.00,,---,0.00,VWS V15.00,2014-01-16 13:20:00,
2014-01-16 07:21:00,39.2,26.1,29.94,West,266,6.0,6.0,59,0.00,,---,0.00,VWS V15.00,2014-01-16 13:21:00,
2014-01-16 07:22:00,39.2,26.1,29.94,West,271,5.0,7.0,59,0.00,,---,0.00,VWS V15.00,2014-01-16 13:22:00,
2014-01-16 07:23:00,39.2,26.5,29.94,West,267,5.0,7.0,60,0.00,,---,0.00,VWS V15.00,2014-01-16 13:23:00,
2014-01-16 07:26:00,39.1,26.4,29.94,West,273,5.0,7.0,60,0.00,,---,0.00,VWS V15.00,2014-01-16 13:26:00,
2014-01-16 07:27:00,39.1,26.4,29.94,West,274,7.0,7.0,60,0.00,,---,0.00,VWS V15.00,2014-01-16 13:27:00,
2014-01-16 07:28:00,39.1,26.4,29.94,West,270,5.0,7.0,60,0.00,,---,0.00,VWS V15.00,2014-01-16 13:28:00,
2014-01-16 07:30:00,38.9,26.2,29.94,West,270,6.0,7.0,60,0.00,,---,0.00,VWS V15.00,2014-01-16 13:30:00,
2014-01-16 07:31:00,38.8,26.5,29.94,West,270,6.0,7.0,61,0.00,,---,0.00,VWS V15.00,2014-01-16 13:31:00,
2014-01-16 07:32:00,38.8,26.5,29.94,West,271,7.0,7.0,61,0.00,,---,0.00,VWS V15.00,2014-01-16 13:32:00,
2014-01-16 07:33:00,38.8,26.5,29.94,West,266,7.0,7.0,61,0.00,,---,0.00,VWS V15.00,2014-01-16 13:33:00,
2014-01-16 07:36:00,38.5,26.2,29.94,West,273,7.0,10.0,61,0.00,,---,0.00,VWS V15.00,2014-01-16 13:36:00,
2014-01-16 07:37:00,38.5,26.6,29.94,West,265,6.0,10.0,62,0.00,,---,0.00,VWS V15.00,2014-01-16 13:37:00,
2014-01-16 07:38:00,38.5,26.6,29.94,West,261,8.0,10.0,62,0.00,,---,0.00,VWS V15.00,2014-01-16 13:38:00,
2014-01-16 07:40:00,38.3,26.4,29.94,West,270,7.0,10.0,62,0.00,,---,0.00,VWS V15.00,2014-01-16 13:40:00,
2014-01-16 07:41:00,38.3,26.4,29.94,West,274,7.0,9.0,62,0.00,,---,0.00,VWS V15.00,2014-01-16 13:41:00,
2014-01-16 07:42:00,38.3,26.4,29.94,West,265,7.0,9.0,62,0.00,,---,0.00,VWS V15.00,2014-01-16 13:42:00,
2014-01-16 07:43:00,38.3,26.4,29.94,West,271,6.0,9.0,62,0.00,,---,0.00,VWS V15.00,2014-01-16 13:43:00,
2014-01-16 07:46:00,38.2,26.3,29.95,West,267,6.0,9.0,62,0.00,,---,0.00,VWS V15.00,2014-01-16 13:46:00,
2014-01-16 07:47:00,38.2,26.3,29.95,West,267,6.0,9.0,62,0.00,,---,0.00,VWS V15.00,2014-01-16 13:47:00,
2014-01-16 07:48:00,38.2,26.3,29.95,West,266,7.0,9.0,62,0.00,,---,0.00,VWS V15.00,2014-01-16 13:48:00,
2014-01-16 07:50:00,38.2,26.3,29.95,West,270,7.0,10.0,62,0.00,,---,0.00,VWS V15.00,2014-01-16 13:50:00,
2014-01-16 07:51:00,38.2,26.3,29.95,West,263,6.0,8.0,62,0.00,,---,0.00,VWS V15.00,2014-01-16 13:51:00,
2014-01-16 07:52:00,38.2,26.3,29.95,West,267,7.0,8.0,62,0.00,,---,0.00,VWS V15.00,2014-01-16 13:52:00,
2014-01-16 07:53:00,38.0,26.1,29.95,West,266,6.0,8.0,62,0.00,,---,0.00,VWS V15.00,2014-01-16 13:53:00,
2014-01-16 07:57:00,37.9,26.5,29.95,West,267,7.0,8.0,63,0.00,,---,0.00,VWS V15.00,2014-01-16 13:57:00,
2014-01-16 07:58:00,37.8,26.4,29.95,West,267,5.0,8.0,63,0.00,,---,0.00,VWS V15.00,2014-01-16 13:58:00,
2014-01-16 08:00:00,37.6,26.2,29.96,West,270,7.0,10.0,63,0.00,,---,0.00,VWS V15.00,2014-01-16 14:00:00,
2014-01-16 08:02:00,37.5,26.5,29.96,West,263,9.0,9.0,64,0.00,,---,0.00,VWS V15.00,2014-01-16 14:02:00,
2014-01-16 08:03:00,37.5,26.5,29.96,West,266,7.0,9.0,64,0.00,,---,0.00,VWS V15.00,2014-01-16 14:03:00,
2014-01-16 08:07:00,37.3,26.3,29.96,West,265,7.0,9.0,64,0.00,,---,0.00,VWS V15.00,2014-01-16 14:07:00,
2014-01-16 08:08:00,37.3,26.3,29.96,West,269,7.0,9.0,64,0.00,,---,0.00,VWS V15.00,2014-01-16 14:08:00,
2014-01-16 08:10:00,37.3,26.3,29.96,West,270,7.0,10.0,64,0.00,,---,0.00,VWS V15.00,2014-01-16 14:10:00,
2014-01-16 08:12:00,37.5,26.5,29.96,West,271,6.0,9.0,64,0.00,,---,0.00,VWS V15.00,2014-01-16 14:12:00,
2014-01-16 08:13:00,37.6,26.2,29.96,West,271,5.0,9.0,63,0.00,,---,0.00,VWS V15.00,2014-01-16 14:13:00,
2014-01-16 08:17:00,38.0,26.1,29.97,West,275,6.0,12.0,62,0.00,,---,0.00,VWS V15.00,2014-01-16 14:17:00,
2014-01-16 08:18:00,38.2,26.3,29.97,West,271,6.0,12.0,62,0.00,,---,0.00,VWS V15.00,2014-01-16 14:18:00,
2014-01-16 08:20:00,38.3,26.0,29.97,West,270,7.0,12.0,61,0.00,,---,0.00,VWS V15.00,2014-01-16 14:20:00,
2014-01-16 08:22:00,38.6,25.9,29.97,West,275,6.0,17.0,60,0.00,,---,0.00,VWS V15.00,2014-01-16 14:22:00,
2014-01-16 08:23:00,38.8,25.7,29.97,West,272,7.0,17.0,59,0.00,,---,0.00,VWS V15.00,2014-01-16 14:23:00,
2014-01-16 08:27:00,39.2,25.7,29.97,West,267,10.0,17.0,58,0.00,,---,0.00,VWS V15.00,2014-01-16 14:27:00,
2014-01-16 08:28:00,39.3,25.8,29.97,West,277,9.0,17.0,58,0.00,,---,0.00,VWS V15.00,2014-01-16 14:28:00,
2014-01-16 08:29:00,39.3,25.8,29.97,West,276,7.0,17.0,58,0.00,,---,0.00,VWS V15.00,2014-01-16 14:29:00,
2014-01-16 08:30:00,39.5,25.5,29.98,West,270,7.0,17.0,57,0.00,,---,0.00,VWS V15.00,2014-01-16 14:30:00,
2014-01-16 08:32:00,39.6,25.6,29.98,West,272,6.0,10.0,57,0.00,,---,0.00,VWS V15.00,2014-01-16 14:32:00,
2014-01-16 08:33:00,39.6,25.6,29.98,West,273,7.0,10.0,57,0.00,,---,0.00,VWS V15.00,2014-01-16 14:33:00,
2014-01-16 08:34:00,39.6,25.6,29.98,West,270,6.0,10.0,57,0.00,,---,0.00,VWS V15.00,2014-01-16 14:34:00,
2014-01-16 08:37:00,39.8,25.4,29.98,West,276,6.0,17.0,56,0.00,,---,0.00,VWS V15.00,2014-01-16 14:37:00,
2014-01-16 08:38:00,39.9,25.9,29.98,West,263,9.0,17.0,57,0.00,,---,0.00,VWS V15.00,2014-01-16 14:38:00,
2014-01-16 08:39:00,39.9,25.5,29.98,West,273,6.0,17.0,56,0.00,,---,0.00,VWS V15.00,2014-01-16 14:39:00,
2014-01-16 08:40:00,39.9,25.5,29.98,West,270,7.0,17.0,56,0.00,,---,0.00,VWS V15.00,2014-01-16 14:40:00,
2014-01-16 08:42:00,40.1,25.7,29.98,West,279,8.0,15.0,56,0.00,,---,0.00,VWS V15.00,2014-01-16 14:42:00,
2014-01-16 08:43:00,40.1,25.2,29.98,West,276,7.0,15.0,55,0.00,,---,0.00,VWS V15.00,2014-01-16 14:43:00,
2014-01-16 08:44:00,40.1,25.2,29.98,West,280,7.0,15.0,55,0.00,,---,0.00,VWS V15.00,2014-01-16 14:44:00,
2014-01-16 08:47:00,40.2,25.3,29.98,WNW,283,4.0,15.0,55,0.00,,---,0.00,VWS V15.00,2014-01-16 14:47:00,
2014-01-16 08:48:00,40.3,25.0,29.98,WNW,300,12.0,15.0,54,0.00,,---,0.00,VWS V15.00,2014-01-16 14:48:00,
2014-01-16 08:49:00,40.3,24.5,29.98,WNW,290,16.0,17.0,53,0.00,,---,0.00,VWS V15.00,2014-01-16 14:49:00,
2014-01-16 08:50:00,40.5,24.3,29.98,West,270,9.0,18.0,52,0.00,,---,0.00,VWS V15.00,2014-01-16 14:50:00,
2014-01-16 08:52:00,40.6,24.4,29.98,WNW,295,10.0,17.0,52,0.00,,---,0.00,VWS V15.00,2014-01-16 14:52:00,
2014-01-16 08:53:00,40.6,23.9,29.98,West,263,9.0,19.0,51,0.00,,---,0.00,VWS V15.00,2014-01-16 14:53:00,
2014-01-16 08:54:00,40.8,24.1,29.98,WNW,286,16.0,19.0,51,0.00,,---,0.00,VWS V15.00,2014-01-16 14:54:00,
2014-01-16 08:57:00,40.9,24.2,29.98,NW,310,20.0,21.0,51,0.00,,---,0.00,VWS V15.00,2014-01-16 14:57:00,
2014-01-16 08:58:00,40.9,23.7,29.98,WNW,282,14.0,21.0,50,0.00,,---,0.00,VWS V15.00,2014-01-16 14:58:00,
2014-01-16 08:59:00,41.1,23.9,29.98,WNW,301,19.0,21.0,50,0.00,,---,0.00,VWS V15.00,2014-01-16 14:59:00,
2014-01-16 09:00:00,41.1,23.4,29.98,WNW,292,13.0,21.0,49,0.00,,---,0.00,VWS V15.00,2014-01-16 15:00:00,
2014-01-16 09:02:00,41.1,23.4,29.98,WNW,293,15.0,24.0,49,0.00,,---,0.00,VWS V15.00,2014-01-16 15:02:00,
2014-01-16 09:03:00,41.2,23.0,29.98,WNW,293,10.0,24.0,48,0.00,,---,0.00,VWS V15.00,2014-01-16 15:03:00,
2014-01-16 09:04:00,41.2,23.0,29.98,WNW,299,8.0,24.0,48,0.00,,---,0.00,VWS V15.00,2014-01-16 15:04:00,
2014-01-16 09:07:00,41.3,23.1,29.98,WNW,297,10.0,24.0,48,0.00,,---,0.00,VWS V15.00,2014-01-16 15:07:00,
2014-01-16 09:08:00,41.5,23.3,29.98,West,281,7.0,24.0,48,0.00,,---,0.00,VWS V15.00,2014-01-16 15:08:00,
2014-01-16 09:09:00,41.5,23.3,29.98,NW,312,10.0,24.0,48,0.00,,---,0.00,VWS V15.00,2014-01-16 15:09:00,
2014-01-16 09:10:00,41.5,23.3,29.98,WNW,292,13.0,24.0,48,0.00,,---,0.00,VWS V15.00,2014-01-16 15:10:00,
2014-01-16 09:12:00,41.6,23.4,29.98,WNW,287,5.0,18.0,48,0.00,,---,0.00,VWS V15.00,2014-01-16 15:12:00,
2014-01-16 09:13:00,41.6,23.4,29.98,WNW,291,9.0,18.0,48,0.00,,---,0.00,VWS V15.00,2014-01-16 15:13:00,
2014-01-16 09:14:00,41.6,23.4,29.98,WNW,292,13.0,18.0,48,0.00,,---,0.00,VWS V15.00,2014-01-16 15:14:00,
2014-01-16 09:17:00,41.6,23.4,30.00,WNW,284,7.0,18.0,48,0.00,,---,0.00,VWS V15.00,2014-01-16 15:17:00,
2014-01-16 09:18:00,41.6,23.4,30.00,West,275,7.0,18.0,48,0.00,,---,0.00,VWS V15.00,2014-01-16 15:18:00,
2014-01-16 09:19:00,41.6,23.4,30.00,WNW,303,10.0,18.0,48,0.00,,---,0.00,VWS V15.00,2014-01-16 15:19:00,
2014-01-16 09:20:00,41.6,23.4,30.00,WNW,286,13.0,18.0,48,0.00,,---,0.00,VWS V15.00,2014-01-16 15:20:00,
2014-01-16 09:22:00,41.6,23.9,30.00,West,277,6.0,16.0,49,0.00,,---,0.00,VWS V15.00,2014-01-16 15:22:00,
2014-01-16 09:23:00,41.5,23.8,30.00,WNW,290,12.0,16.0,49,0.00,,---,0.00,VWS V15.00,2014-01-16 15:23:00,
2014-01-16 09:24:00,41.5,23.8,30.00,West,270,5.0,16.0,49,0.00,,---,0.00,VWS V15.00,2014-01-16 15:24:00,
2014-01-16 09:25:00,41.5,23.8,30.00,WNW,286,9.0,16.0,49,0.00,,---,0.00,VWS V15.00,2014-01-16 15:25:00,
2014-01-16 09:27:00,41.5,23.3,30.00,WNW,284,13.0,20.0,48,0.00,,---,0.00,VWS V15.00,2014-01-16 15:27:00,
2014-01-16 09:28:00,41.5,23.8,30.00,West,270,9.0,20.0,49,0.00,,---,0.00,VWS V15.00,2014-01-16 15:28:00,
2014-01-16 09:29:00,41.6,23.9,30.00,West,277,9.0,20.0,49,0.00,,---,0.00,VWS V15.00,2014-01-16 15:29:00,
2014-01-16 09:30:00,41.6,23.4,30.00,West,271,10.0,20.0,48,0.00,,---,0.00,VWS V15.00,2014-01-16 15:30:00,
2014-01-16 09:32:00,41.6,23.4,30.00,West,280,10.0,22.0,48,0.00,,---,0.00,VWS V15.00,2014-01-16 15:32:00,
2014-01-16 09:34:00,41.6,23.4,30.00,West,265,10.0,22.0,48,0.00,,---,0.00,VWS V15.00,2014-01-16 15:34:00,
2014-01-16 09:35:00,41.8,23.6,30.00,WNW,294,14.0,22.0,48,0.00,,---,0.00,VWS V15.00,2014-01-16 15:35:00,
2014-01-16 09:38:00,41.8,23.1,30.00,WNW,285,15.0,22.0,47,0.00,,---,0.00,VWS V15.00,2014-01-16 15:38:00,
2014-01-16 09:39:00,41.9,23.7,30.00,WNW,298,14.0,22.0,48,0.00,,---,0.00,VWS V15.00,2014-01-16 15:39:00,
2014-01-16 09:40:00,41.9,23.7,30.00,West,265,9.0,22.0,48,0.00,,---,0.00,VWS V15.00,2014-01-16 15:40:00,
2014-01-16 09:43:00,41.9,23.7,30.00,West,280,14.0,18.0,48,0.00,,---,0.00,VWS V15.00,2014-01-16 15:43:00,
2014-01-16 09:44:00,41.9,23.2,30.00,NW,313,15.0,23.0,47,0.00,,---,0.00,VWS V15.00,2014-01-16 15:44:00,
2014-01-16 09:45:00,42.1,23.3,30.00,WNW,284,11.0,23.0,47,0.00,,---,0.00,VWS V15.00,2014-01-16 15:45:00,
2014-01-16 09:48:00,42.1,23.3,30.00,West,279,11.0,23.0,47,0.00,,---,0.00,VWS V15.00,2014-01-16 15:48:00,
2014-01-16 09:49:00,42.1,23.3,30.00,West,267,15.0,23.0,47,0.00,,---,0.00,VWS V15.00,2014-01-16 15:49:00,
2014-01-16 09:50:00,42.1,22.8,30.00,WNW,292,7.0,23.0,46,0.00,,---,0.00,VWS V15.00,2014-01-16 15:50:00,
2014-01-16 09:53:00,42.3,23.5,30.00,WNW,286,14.0,17.0,47,0.00,,---,0.00,VWS V15.00,2014-01-16 15:53:00,
2014-01-16 09:54:00,42.5,23.2,30.00,WNW,283,10.0,17.0,46,0.00,,---,0.00,VWS V15.00,2014-01-16 15:54:00,
2014-01-16 09:55:00,42.6,23.3,30.00,West,267,14.0,17.0,46,0.00,,---,0.00,VWS V15.00,2014-01-16 15:55:00,
2014-01-16 09:58:00,42.9,22.5,30.00,WNW,299,13.0,22.0,44,0.00,,---,0.00,VWS V15.00,2014-01-16 15:58:00,
2014-01-16 09:59:00,43.1,22.7,30.00,WNW,300,11.0,22.0,44,0.00,,---,0.00,VWS V15.00,2014-01-16 15:59:00,
2014-01-16 10:00:00,43.1,22.7,30.00,WNW,296,16.0,22.0,44,0.00,,---,0.00,VWS V15.00,2014-01-16 16:00:00,
2014-01-16 10:03:00,43.3,22.3,30.00,NW,304,22.0,22.0,43,0.00,,---,0.00,VWS V15.00,2014-01-16 16:03:00,
2014-01-16 10:04:00,43.3,21.8,30.00,WNW,288,15.0,22.0,42,0.00,,---,0.00,VWS V15.00,2014-01-16 16:04:00,
2014-01-16 10:05:00,43.5,22.0,30.00,WNW,299,10.0,23.0,42,0.00,,---,0.00,VWS V15.00,2014-01-16 16:05:00,
2014-01-16 10:08:00,43.6,21.5,30.00,WNW,302,20.0,24.0,41,0.00,,---,0.00,VWS V15.00,2014-01-16 16:08:00,
2014-01-16 10:09:00,43.6,21.5,30.00,West,266,15.0,27.0,41,0.00,,---,0.00,VWS V15.00,2014-01-16 16:09:00,
2014-01-16 10:10:00,43.6,21.5,30.00,WNW,292,6.0,27.0,41,0.00,,---,0.00,VWS V15.00,2014-01-16 16:10:00,
2014-01-16 10:11:00,43.6,21.5,30.00,WNW,300,24.0,24.0,41,0.00,,---,0.00,VWS V15.00,2014-01-16 16:11:00,
2014-01-16 10:13:00,43.8,21.1,30.00,NW,315,8.0,27.0,40,0.00,,---,0.00,VWS V15.00,2014-01-16 16:13:00,
2014-01-16 10:14:00,43.8,21.1,30.00,WNW,300,6.0,27.0,40,0.00,,---,0.00,VWS V15.00,2014-01-16 16:14:00,
2014-01-16 10:15:00,43.9,21.2,30.00,NNW,333,14.0,27.0,40,0.00,,---,0.00,VWS V15.00,2014-01-16 16:15:00,
2014-01-16 10:16:00,43.9,21.2,30.00,WNW,289,12.0,27.0,40,0.00,,---,0.00,VWS V15.00,2014-01-16 16:16:00,
2014-01-16 10:18:00,44.1,21.3,30.00,West,269,11.0,27.0,40,0.00,,---,0.00,VWS V15.00,2014-01-16 16:18:00,
2014-01-16 10:19:00,44.2,20.8,30.00,WNW,302,21.0,27.0,39,0.00,,---,0.00,VWS V15.00,2014-01-16 16:19:00,
2014-01-16 10:20:00,44.2,20.8,30.00,NW,304,8.0,10.0,39,0.00,,---,0.00,VWS V15.00,2014-01-16 16:20:00,
2014-01-16 10:21:00,44.2,20.8,30.00,NNW,338,10.0,19.0,39,0.00,,---,0.00,VWS V15.00,2014-01-16 16:21:00,
2014-01-16 10:23:00,44.3,20.3,30.00,WNW,292,11.0,21.0,38,0.00,,---,0.00,VWS V15.00,2014-01-16 16:23:00,
2014-01-16 10:24:00,44.5,20.5,30.00,NW,306,15.0,21.0,38,0.00,,---,0.00,VWS V15.00,2014-01-16 16:24:00,
2014-01-16 10:25:00,44.5,21.1,30.00,NNW,327,9.0,21.0,39,0.00,,---,0.00,VWS V15.00,2014-01-16 16:25:00,
2014-01-16 10:26:00,44.5,20.5,30.00,NW,324,17.0,26.0,38,0.00,,---,0.00,VWS V15.00,2014-01-16 16:26:00,
2014-01-16 10:28:00,44.6,20.0,30.00,WNW,293,21.0,26.0,37,0.00,,---,0.00,VWS V15.00,2014-01-16 16:28:00,
2014-01-16 10:29:00,44.6,20.0,30.00,WNW,297,20.0,26.0,37,0.00,,---,0.00,VWS V15.00,2014-01-16 16:29:00,
2014-01-16 10:30:00,44.6,20.0,30.00,NW,323,13.0,17.0,37,0.00,,---,0.00,VWS V15.00,2014-01-16 16:30:00,
2014-01-16 10:31:00,44.6,20.0,30.00,WNW,301,13.0,18.0,37,0.00,,---,0.00,VWS V15.00,2014-01-16 16:31:00,
2014-01-16 10:33:00,44.8,20.1,30.00,WNW,300,15.0,22.0,37,0.00,,---,0.00,VWS V15.00,2014-01-16 16:33:00,
2014-01-16 10:34:00,44.8,20.1,30.00,WNW,290,15.0,22.0,37,0.00,,---,0.00,VWS V15.00,2014-01-16 16:34:00,
2014-01-16 10:35:00,44.9,20.2,30.00,WNW,292,10.0,22.0,37,0.00,,---,0.00,VWS V15.00,2014-01-16 16:35:00,
2014-01-16 10:36:00,44.9,20.2,30.00,WNW,290,21.0,22.0,37,0.00,,---,0.00,VWS V15.00,2014-01-16 16:36:00,
2014-01-16 10:38:00,44.9,20.2,30.00,NW,304,16.0,25.0,37,0.00,,---,0.00,VWS V15.00,2014-01-16 16:38:00,
2014-01-16 10:39:00,44.9,20.2,30.00,West,277,10.0,25.0,37,0.00,,---,0.00,VWS V15.00,2014-01-16 16:39:00,
2014-01-16 10:40:00,44.9,20.2,30.00,WNW,290,14.0,25.0,37,0.00,,---,0.00,VWS V15.00,2014-01-16 16:40:00,
2014-01-16 10:41:00,44.9,19.6,30.00,WNW,294,19.0,30.0,36,0.00,,---,0.00,VWS V15.00,2014-01-16 16:41:00,
2014-01-16 10:43:00,45.1,19.8,30.00,WNW,283,12.0,30.0,36,0.00,,---,0.00,VWS V15.00,2014-01-16 16:43:00,
2014-01-16 10:44:00,45.1,19.8,30.00,WNW,296,20.0,30.0,36,0.00,,---,0.00,VWS V15.00,2014-01-16 16:44:00,
2014-01-16 10:45:00,45.1,19.8,30.00,WNW,296,22.0,30.0,36,0.00,,---,0.00,VWS V15.00,2014-01-16 16:45:00,
2014-01-16 10:46:00,45.1,19.1,30.00,NW,326,19.0,30.0,35,0.00,,---,0.00,VWS V15.00,2014-01-16 16:46:00,
2014-01-16 10:47:00,45.1,19.1,30.00,NW,320,11.0,30.0,35,0.00,,---,0.00,VWS V15.00,2014-01-16 16:47:00,
2014-01-16 10:48:00,45.1,19.8,30.00,WNW,288,9.0,30.0,36,0.00,,---,0.00,VWS V15.00,2014-01-16 16:48:00,
2014-01-16 10:49:00,45.2,19.9,30.00,NNW,338,13.0,30.0,36,0.00,,---,0.00,VWS V15.00,2014-01-16 16:49:00,
2014-01-16 10:50:00,45.2,19.9,30.00,NW,306,23.0,30.0,36,0.00,,---,0.00,VWS V15.00,2014-01-16 16:50:00,
2014-01-16 10:51:00,45.1,18.4,30.00,WNW,284,9.0,30.0,34,0.00,,---,0.00,VWS V15.00,2014-01-16 16:51:00,
2014-01-16 10:52:00,45.1,18.4,30.00,NW,304,21.0,30.0,34,0.00,,---,0.00,VWS V15.00,2014-01-16 16:52:00,
2014-01-16 10:53:00,45.2,19.2,30.00,NW,316,13.0,30.0,35,0.00,,---,0.00,VWS V15.00,2014-01-16 16:53:00,
2014-01-16 10:55:00,45.2,19.2,30.00,West,279,13.0,30.0,35,0.00,,---,0.00,VWS V15.00,2014-01-16 16:55:00,
2014-01-16 10:56:00,45.2,19.2,30.00,West,270,11.0,30.0,35,0.00,,---,0.00,VWS V15.00,2014-01-16 16:56:00,
2014-01-16 10:57:00,45.2,19.9,30.00,WNW,290,13.0,30.0,36,0.00,,---,0.00,VWS V15.00,2014-01-16 16:57:00,
2014-01-16 10:58:00,45.2,19.9,30.00,WNW,292,22.0,30.0,36,0.00,,---,0.00,VWS V15.00,2014-01-16 16:58:00,
2014-01-16 11:00:00,45.4,20.0,29.99,WNW,298,10.0,30.0,36,0.00,,---,0.00,VWS V15.00,2014-01-16 17:00:00,
2014-01-16 11:01:00,45.4,20.0,29.99,West,280,16.0,22.0,36,0.00,,---,0.00,VWS V15.00,2014-01-16 17:01:00,
2014-01-16 11:02:00,45.4,19.4,29.99,WNW,295,10.0,22.0,35,0.00,,---,0.00,VWS V15.00,2014-01-16 17:02:00,
2014-01-16 11:03:00,45.4,20.0,29.99,WNW,297,19.0,22.0,36,0.00,,---,0.00,VWS V15.00,2014-01-16 17:03:00,
2014-01-16 11:05:00,45.2,19.9,29.99,WNW,294,10.0,25.0,36,0.00,,---,0.00,VWS V15.00,2014-01-16 17:05:00,
2014-01-16 11:06:00,45.2,20.5,29.99,West,279,13.0,25.0,37,0.00,,---,0.00,VWS V15.00,2014-01-16 17:06:00,
2014-01-16 11:07:00,45.2,20.5,29.99,WNW,286,21.0,25.0,37,0.00,,---,0.00,VWS V15.00,2014-01-16 17:07:00,
2014-01-16 11:08:00,45.2,19.9,29.99,WNW,295,14.0,25.0,36,0.00,,---,0.00,VWS V15.00,2014-01-16 17:08:00,
2014-01-16 11:10:00,45.2,20.5,29.99,WNW,295,18.0,25.0,37,0.00,,---,0.00,VWS V15.00,2014-01-16 17:10:00,
2014-01-16 11:11:00,45.1,19.8,29.99,WNW,286,24.0,26.0,36,0.00,,---,0.00,VWS V15.00,2014-01-16 17:11:00,
2014-01-16 11:12:00,45.1,19.8,29.99,NW,306,14.0,26.0,36,0.00,,---,0.00,VWS V15.00,2014-01-16 17:12:00,
2014-01-16 11:13:00,45.1,20.4,29.99,WNW,284,19.0,26.0,37,0.00,,---,0.00,VWS V15.00,2014-01-16 17:13:00,
2014-01-16 11:15:00,45.2,19.9,29.98,West,276,12.0,26.0,36,0.00,,---,0.00,VWS V15.00,2014-01-16 17:15:00,
2014-01-16 11:16:00,45.2,19.9,29.98,West,269,14.0,26.0,36,0.00,,---,0.00,VWS V15.00,2014-01-16 17:16:00,
2014-01-16 11:17:00,45.2,19.9,29.98,WNW,282,12.0,26.0,36,0.00,,---,0.00,VWS V15.00,2014-01-16 17:17:00,
2014-01-16 11:18:00,45.2,20.5,29.98,WNW,302,17.0,26.0,37,0.00,,---,0.00,VWS V15.00,2014-01-16 17:18:00,
2014-01-16 11:20:00,45.2,19.9,29.98,WNW,285,14.0,16.0,36,0.00,,---,0.00,VWS V15.00,2014-01-16 17:20:00,
2014-01-16 11:21:00,45.2,20.5,29.98,WNW,300,18.0,19.0,37,0.00,,---,0.00,VWS V15.00,2014-01-16 17:21:00,
2014-01-16 11:22:00,45.4,19.4,29.98,West,277,14.0,26.0,35,0.00,,---,0.00,VWS V15.00,2014-01-16 17:22:00,
2014-01-16 11:23:00,45.4,19.4,29.98,WNW,284,15.0,28.0,35,0.00,,---,0.00,VWS V15.00,2014-01-16 17:23:00,
2014-01-16 11:25:00,45.4,20.0,29.98,West,281,19.0,28.0,36,0.00,,---,0.00,VWS V15.00,2014-01-16 17:25:00,
2014-01-16 11:26:00,45.4,19.4,29.98,West,281,14.0,28.0,35,0.00,,---,0.00,VWS V15.00,2014-01-16 17:26:00,
2014-01-16 11:27:00,45.4,19.4,29.98,West,272,20.0,28.0,35,0.00,,---,0.00,VWS V15.00,2014-01-16 17:27:00,
2014-01-16 11:28:00,45.4,20.7,29.98,WNW,286,20.0,28.0,37,0.00,,---,0.00,VWS V15.00,2014-01-16 17:28:00,
2014-01-16 11:30:00,45.5,19.5,29.97,WNW,294,15.0,20.0,35,0.00,,---,0.00,VWS V15.00,2014-01-16 17:30:00,
2014-01-16 11:31:00,45.5,20.1,29.97,West,271,9.0,20.0,36,0.00,,---,0.00,VWS V15.00,2014-01-16 17:31:00,
2014-01-16 11:32:00,45.7,20.3,29.97,WNW,299,11.0,28.0,36,0.00,,---,0.00,VWS V15.00,2014-01-16 17:32:00,
2014-01-16 11:33:00,45.7,20.3,29.97,NW,311,15.0,28.0,36,0.00,,---,0.00,VWS V15.00,2014-01-16 17:33:00,
2014-01-16 11:35:00,45.7,19.6,29.97,NNW,329,17.0,28.0,35,0.00,,---,0.00,VWS V15.00,2014-01-16 17:35:00,
2014-01-16 11:36:00,45.7,19.6,29.97,NNW,347,12.0,28.0,35,0.00,,---,0.00,VWS V15.00,2014-01-16 17:36:00,
2014-01-16 11:38:00,45.8,20.4,29.97,WNW,291,16.0,28.0,36,0.00,,---,0.00,VWS V15.00,2014-01-16 17:38:00,
2014-01-16 11:40:00,46.1,19.3,29.97,NNW,342,11.0,21.0,34,0.00,,---,0.00,VWS V15.00,2014-01-16 17:40:00,
2014-01-16 11:41:00,46.1,20.0,29.97,WNW,301,20.0,24.0,35,0.00,,---,0.00,VWS V15.00,2014-01-16 17:41:00,
2014-01-16 11:42:00,46.1,20.0,29.97,NW,309,16.0,24.0,35,0.00,,---,0.00,VWS V15.00,2014-01-16 17:42:00,
2014-01-16 11:43:00,46.1,20.0,29.97,WNW,300,15.0,24.0,35,0.00,,---,0.00,VWS V15.00,2014-01-16 17:43:00,
2014-01-16 11:45:00,46.2,20.1,29.96,NW,304,11.0,26.0,35,0.00,,---,0.00,VWS V15.00,2014-01-16 17:45:00,
2014-01-16 11:46:00,46.2,20.7,29.96,West,273,11.0,26.0,36,0.00,,---,0.00,VWS V15.00,2014-01-16 17:46:00,
2014-01-16 11:47:00,46.2,20.7,29.96,West,279,13.0,26.0,36,0.00,,---,0.00,VWS V15.00,2014-01-16 17:47:00,
2014-01-16 11:48:00,46.4,20.2,29.96,WNW,298,17.0,26.0,35,0.00,,---,0.00,VWS V15.00,2014-01-16 17:48:00,
2014-01-16 11:50:00,46.4,20.2,29.96,WNW,296,28.0,28.0,35,0.00,,---,0.00,VWS V15.00,2014-01-16 17:50:00,
2014-01-16 11:51:00,46.4,19.6,29.96,WNW,292,23.0,28.0,34,0.00,,---,0.00,VWS V15.00,2014-01-16 17:51:00,
2014-01-16 11:52:00,46.4,19.6,29.96,WNW,284,24.0,28.0,34,0.00,,---,0.00,VWS V15.00,2014-01-16 17:52:00,
2014-01-16 11:53:00,46.4,19.6,29.96,NW,317,23.0,28.0,34,0.00,,---,0.00,VWS V15.00,2014-01-16 17:53:00,
2014-01-16 11:55:00,46.4,19.6,29.96,WNW,294,22.0,30.0,34,0.00,,---,0.00,VWS V15.00,2014-01-16 17:55:00,
2014-01-16 11:57:00,46.4,20.2,29.96,NW,310,6.0,30.0,35,0.00,,---,0.00,VWS V15.00,2014-01-16 17:57:00,
2014-01-16 11:58:00,46.5,19.7,29.96,WNW,287,17.0,30.0,34,0.00,,---,0.00,VWS V15.00,2014-01-16 17:58:00,
2014-01-16 12:00:00,46.7,19.8,29.95,WNW,292,14.0,23.0,34,0.00,,---,0.00,VWS V15.00,2014-01-16 18:00:00,
2014-01-16 12:02:00,46.7,19.8,29.95,NW,323,21.0,23.0,34,0.00,,---,0.00,VWS V15.00,2014-01-16 18:02:00,
2014-01-16 12:03:00,46.7,19.8,29.95,WNW,298,20.0,31.0,34,0.00,,---,0.00,VWS V15.00,2014-01-16 18:03:00,
2014-01-16 12:04:00,46.7,19.8,29.95,West,273,12.0,31.0,34,0.00,,---,0.00,VWS V15.00,2014-01-16 18:04:00,
2014-01-16 12:06:00,46.8,19.2,29.95,WNW,292,22.0,31.0,33,0.00,,---,0.00,VWS V15.00,2014-01-16 18:06:00,
2014-01-16 12:07:00,46.8,19.9,29.95,NW,309,20.0,31.0,34,0.00,,---,0.00,VWS V15.00,2014-01-16 18:07:00,
2014-01-16 12:08:00,46.8,19.2,29.95,WNW,288,11.0,31.0,33,0.00,,---,0.00,VWS V15.00,2014-01-16 18:08:00,
2014-01-16 12:09:00,46.8,19.2,29.95,NW,304,19.0,31.0,33,0.00,,---,0.00,VWS V15.00,2014-01-16 18:09:00,
2014-01-16 12:10:00,47.0,19.4,29.95,WNW,300,16.0,21.0,33,0.00,,---,0.00,VWS V15.00,2014-01-16 18:10:00,
2014-01-16 12:12:00,47.0,20.1,29.95,WNW,297,15.0,21.0,34,0.00,,---,0.00,VWS V15.00,2014-01-16 18:12:00,
2014-01-16 12:13:00,47.1,20.2,29.95,WNW,287,20.0,22.0,34,0.00,,---,0.00,VWS V15.00,2014-01-16 18:13:00,
2014-01-16 12:14:00,47.1,20.2,29.95,WNW,294,16.0,22.0,34,0.00,,---,0.00,VWS V15.00,2014-01-16 18:14:00,
2014-01-16 12:15:00,47.3,19.7,29.93,WNW,290,7.0,23.0,33,0.00,,---,0.00,VWS V15.00,2014-01-16 18:15:00,
2014-01-16 12:17:00,47.4,20.5,29.93,West,281,17.0,23.0,34,0.00,,---,0.00,VWS V15.00,2014-01-16 18:17:00,
2014-01-16 12:18:00,47.7,19.3,29.93,NW,320,16.0,29.0,32,0.00,,---,0.00,VWS V15.00,2014-01-16 18:18:00,
2014-01-16 12:19:00,47.7,19.3,29.93,NW,310,12.0,29.0,32,0.00,,---,0.00,VWS V15.00,2014-01-16 18:19:00,
2014-01-16 12:20:00,47.9,18.0,29.93,WNW,292,15.0,29.0,30,0.00,,---,0.00,VWS V15.00,2014-01-16 18:20:00,
2014-01-16 12:21:00,47.9,18.7,29.93,West,259,9.0,16.0,31,0.00,,---,0.00,VWS V15.00,2014-01-16 18:21:00,
2014-01-16 12:22:00,47.9,18.0,29.93,WNW,302,17.0,26.0,30,0.00,,---,0.00,VWS V15.00,2014-01-16 18:22:00,
2014-01-16 12:23:00,48.0,18.8,29.93,WNW,300,12.0,26.0,31,0.00,,---,0.00,VWS V15.00,2014-01-16 18:23:00,
2014-01-16 12:24:00,48.0,18.8,29.93,WNW,296,10.0,26.0,31,0.00,,---,0.00,VWS V15.00,2014-01-16 18:24:00,
2014-01-16 12:26:00,48.0,19.6,29.93,WNW,291,19.0,28.0,32,0.00,,---,0.00,VWS V15.00,2014-01-16 18:26:00,
2014-01-16 12:27:00,47.9,19.5,29.93,West,273,8.0,28.0,32,0.00,,---,0.00,VWS V15.00,2014-01-16 18:27:00,
2014-01-16 12:28:00,47.9,19.5,29.93,WNW,297,24.0,28.0,32,0.00,,---,0.00,VWS V15.00,2014-01-16 18:28:00,
2014-01-16 12:29:00,47.9,18.7,29.93,NW,310,20.0,28.0,31,0.00,,---,0.00,VWS V15.00,2014-01-16 18:29:00,
2014-01-16 12:30:00,47.9,18.7,29.93,WNW,292,16.0,28.0,31,0.00,,---,0.00,VWS V15.00,2014-01-16 18:30:00,
2014-01-16 12:31:00,47.7,18.6,29.93,NW,306,22.0,23.0,31,0.00,,---,0.00,VWS V15.00,2014-01-16 18:31:00,
2014-01-16 12:32:00,47.7,18.6,29.93,WNW,287,22.0,27.0,31,0.00,,---,0.00,VWS V15.00,2014-01-16 18:32:00,
2014-01-16 12:33:00,47.7,18.6,29.93,WNW,296,15.0,27.0,31,0.00,,---,0.00,VWS V15.00,2014-01-16 18:33:00,
2014-01-16 12:34:00,47.7,18.6,29.93,NW,313,20.0,27.0,31,0.00,,---,0.00,VWS V15.00,2014-01-16 18:34:00,
2014-01-16 12:36:00,47.9,18.7,29.93,WNW,288,12.0,27.0,31,0.00,,---,0.00,VWS V15.00,2014-01-16 18:36:00,
2014-01-16 12:37:00,48.0,18.8,29.93,NW,305,16.0,27.0,31,0.00,,---,0.00,VWS V15.00,2014-01-16 18:37:00,
2014-01-16 12:38:00,48.2,19.7,29.93,WNW,297,19.0,27.0,32,0.00,,---,0.00,VWS V15.00,2014-01-16 18:38:00,
2014-01-16 12:39:00,48.2,18.2,29.93,WNW,294,11.0,27.0,30,0.00,,---,0.00,VWS V15.00,2014-01-16 18:39:00,
2014-01-16 12:40:00,48.3,19.1,29.93,WNW,292,17.0,30.0,31,0.00,,---,0.00,VWS V15.00,2014-01-16 18:40:00,
2014-01-16 12:41:00,48.3,18.3,29.93,NW,307,19.0,25.0,30,0.00,,---,0.00,VWS V15.00,2014-01-16 18:41:00,
2014-01-16 12:42:00,48.5,19.3,29.93,WNW,291,18.0,25.0,31,0.00,,---,0.00,VWS V15.00,2014-01-16 18:42:00,
2014-01-16 12:43:00,48.5,19.3,29.93,NW,313,21.0,25.0,31,0.00,,---,0.00,VWS V15.00,2014-01-16 18:43:00,
2014-01-16 12:44:00,48.6,19.4,29.93,WNW,282,16.0,25.0,31,0.00,,---,0.00,VWS V15.00,2014-01-16 18:44:00,
2014-01-16 12:46:00,48.8,18.8,29.91,NW,317,10.0,32.0,30,0.00,,---,0.00,VWS V15.00,2014-01-16 18:46:00,
2014-01-16 12:47:00,48.8,18.0,29.91,West,279,19.0,32.0,29,0.00,,---,0.00,VWS V15.00,2014-01-16 18:47:00,
2014-01-16 12:48:00,48.8,17.2,29.91,NNW,329,17.0,32.0,28,0.00,,---,0.00,VWS V15.00,2014-01-16 18:48:00,
2014-01-16 12:49:00,48.8,18.0,29.91,WNW,302,14.0,32.0,29,0.00,,---,0.00,VWS V15.00,2014-01-16 18:49:00,
2014-01-16 12:50:00,48.8,17.2,29.91,WNW,292,16.0,32.0,28,0.00,,---,0.00,VWS V15.00,2014-01-16 18:50:00,
2014-01-16 12:51:00,48.8,17.2,29.91,WNW,295,19.0,25.0,28,0.00,,---,0.00,VWS V15.00,2014-01-16 18:51:00,
2014-01-16 12:52:00,48.9,17.2,29.91,NNW,345,15.0,25.0,28,0.00,,---,0.00,VWS V15.00,2014-01-16 18:52:00,
2014-01-16 12:53:00,48.9,17.2,29.91,WNW,296,25.0,30.0,28,0.00,,---,0.00,VWS V15.00,2014-01-16 18:53:00,
2014-01-16 12:54:00,48.9,16.4,29.91,WNW,298,28.0,30.0,27,0.00,,---,0.00,VWS V15.00,2014-01-16 18:54:00,
2014-01-16 12:56:00,48.9,16.4,29.91,WNW,294,27.0,30.0,27,0.00,,---,0.00,VWS V15.00,2014-01-16 18:56:00,
2014-01-16 12:57:00,48.9,17.2,29.91,NW,311,22.0,30.0,28,0.00,,---,0.00,VWS V15.00,2014-01-16 18:57:00,
2014-01-16 12:58:00,48.9,17.2,29.91,NW,313,15.0,30.0,28,0.00,,---,0.00,VWS V15.00,2014-01-16 18:58:00,
2014-01-16 12:59:00,48.9,16.4,29.91,WNW,284,30.0,30.0,27,0.00,,---,0.00,VWS V15.00,2014-01-16 18:59:00,
2014-01-16 13:00:00,48.9,17.2,29.91,WNW,292,20.0,31.0,28,0.00,,---,0.00,VWS V15.00,2014-01-16 19:00:00,
2014-01-16 13:01:00,48.9,16.4,29.91,WNW,296,20.0,29.0,27,0.00,,---,0.00,VWS V15.00,2014-01-16 19:01:00,
2014-01-16 13:02:00,48.9,16.4,29.91,WNW,294,16.0,29.0,27,0.00,,---,0.00,VWS V15.00,2014-01-16 19:02:00,
2014-01-16 13:03:00,48.9,17.2,29.91,WNW,292,22.0,37.0,28,0.00,,---,0.00,VWS V15.00,2014-01-16 19:03:00,
2014-01-16 13:04:00,48.8,16.3,29.91,NW,311,19.0,37.0,27,0.00,,---,0.00,VWS V15.00,2014-01-16 19:04:00,
2014-01-16 13:05:00,48.8,17.2,29.91,NNW,327,11.0,37.0,28,0.00,,---,0.00,VWS V15.00,2014-01-16 19:05:00,
2014-01-16 13:06:00,48.6,17.0,29.91,WNW,294,13.0,37.0,28,0.00,,---,0.00,VWS V15.00,2014-01-16 19:06:00,
2014-01-16 13:07:00,48.5,16.9,29.91,NW,305,20.0,37.0,28,0.00,,---,0.00,VWS V15.00,2014-01-16 19:07:00,
2014-01-16 13:09:00,48.5,16.1,29.91,NNW,328,20.0,37.0,27,0.00,,---,0.00,VWS V15.00,2014-01-16 19:09:00,
2014-01-16 13:10:00,48.3,15.9,29.91,WNW,302,22.0,37.0,27,0.00,,---,0.00,VWS V15.00,2014-01-16 19:10:00,
2014-01-16 13:11:00,48.5,16.1,29.91,WNW,296,18.0,26.0,27,0.00,,---,0.00,VWS V15.00,2014-01-16 19:11:00,
2014-01-16 13:12:00,48.6,16.1,29.91,NW,325,11.0,26.0,27,0.00,,---,0.00,VWS V15.00,2014-01-16 19:12:00,
2014-01-16 13:14:00,48.8,16.3,29.91,NNW,344,20.0,26.0,27,0.00,,---,0.00,VWS V15.00,2014-01-16 19:14:00,
2014-01-16 13:15:00,48.9,17.2,29.91,WNW,286,22.0,26.0,28,0.00,,---,0.00,VWS V15.00,2014-01-16 19:15:00,
2014-01-16 13:16:00,49.2,17.5,29.91,NW,307,26.0,29.0,28,0.00,,---,0.00,VWS V15.00,2014-01-16 19:16:00,
2014-01-16 13:17:00,49.4,17.7,29.91,WNW,286,17.0,29.0,28,0.00,,---,0.00,VWS V15.00,2014-01-16 19:17:00,
2014-01-16 13:19:00,49.5,17.8,29.91,WNW,287,16.0,29.0,28,0.00,,---,0.00,VWS V15.00,2014-01-16 19:19:00,
2014-01-16 13:20:00,49.5,16.9,29.91,WNW,293,15.0,29.0,27,0.00,,---,0.00,VWS V15.00,2014-01-16 19:20:00,
2014-01-16 13:22:00,49.4,16.8,29.91,West,281,17.0,24.0,27,0.00,,---,0.00,VWS V15.00,2014-01-16 19:22:00,
2014-01-16 13:24:00,49.2,16.7,29.91,NW,305,21.0,32.0,27,0.00,,---,0.00,VWS V15.00,2014-01-16 19:24:00,
2014-01-16 13:25:00,49.1,17.4,29.91,WNW,300,18.0,32.0,28,0.00,,---,0.00,VWS V15.00,2014-01-16 19:25:00,
2014-01-16 13:27:00,48.6,17.0,29.91,NW,305,22.0,33.0,28,0.00,,---,0.00,VWS V15.00,2014-01-16 19:27:00,
2014-01-16 13:29:00,48.2,15.8,29.91,WNW,282,27.0,33.0,27,0.00,,---,0.00,VWS V15.00,2014-01-16 19:29:00,
2014-01-16 13:30:00,48.2,15.8,29.91,WNW,294,24.0,33.0,27,0.00,,---,0.00,VWS V15.00,2014-01-16 19:30:00,
2014-01-16 13:32:00,48.0,16.5,29.91,WNW,294,15.0,23.0,28,0.00,,---,0.00,VWS V15.00,2014-01-16 19:32:00,
2014-01-16 13:34:00,48.0,16.5,29.91,NW,304,21.0,24.0,28,0.00,,---,0.00,VWS V15.00,2014-01-16 19:34:00,
2014-01-16 13:35:00,48.0,16.5,29.91,NNW,333,15.0,24.0,28,0.00,,---,0.00,VWS V15.00,2014-01-16 19:35:00,
2014-01-16 13:36:00,48.2,16.6,29.91,WNW,287,22.0,24.0,28,0.00,,---,0.00,VWS V15.00,2014-01-16 19:36:00,
2014-01-16 13:37:00,48.2,16.6,29.91,NW,305,24.0,27.0,28,0.00,,---,0.00,VWS V15.00,2014-01-16 19:37:00,
2014-01-16 13:39:00,48.2,15.8,29.91,WNW,286,10.0,29.0,27,0.00,,---,0.00,VWS V15.00,2014-01-16 19:39:00,
2014-01-16 13:40:00,48.3,16.7,29.91,WNW,301,24.0,31.0,28,0.00,,---,0.00,VWS V15.00,2014-01-16 19:40:00,
2014-01-16 13:41:00,48.5,16.9,29.91,West,265,21.0,33.0,28,0.00,,---,0.00,VWS V15.00,2014-01-16 19:41:00,
2014-01-16 13:42:00,48.5,15.2,29.91,West,280,31.0,36.0,26,0.00,,---,0.00,VWS V15.00,2014-01-16 19:42:00,
2014-01-16 13:44:00,48.8,14.6,29.90,WNW,289,26.0,36.0,25,0.00,,---,0.00,VWS V15.00,2014-01-16 19:44:00,
2014-01-16 13:45:00,48.8,15.4,29.90,WNW,295,23.0,38.0,26,0.00,,---,0.00,VWS V15.00,2014-01-16 19:45:00,
2014-01-16 13:46:00,48.8,15.4,29.90,WNW,292,18.0,38.0,26,0.00,,---,0.00,VWS V15.00,2014-01-16 19:46:00,
2014-01-16 13:47:00,48.9,16.4,29.90,WNW,297,22.0,38.0,27,0.00,,---,0.00,VWS V15.00,2014-01-16 19:47:00,
2014-01-16 13:49:00,49.2,15.8,29.90,NW,304,29.0,38.0,26,0.00,,---,0.00,VWS V15.00,2014-01-16 19:49:00,
2014-01-16 13:50:00,49.2,14.9,29.90,West,281,26.0,37.0,25,0.00,,---,0.00,VWS V15.00,2014-01-16 19:50:00,
2014-01-16 13:51:00,49.2,14.9,29.90,NW,325,13.0,37.0,25,0.00,,---,0.00,VWS V15.00,2014-01-16 19:51:00,
2014-01-16 13:52:00,49.2,14.9,29.90,NNW,329,12.0,37.0,25,0.00,,---,0.00,VWS V15.00,2014-01-16 19:52:00,
2014-01-16 13:54:00,49.2,14.9,29.90,NNW,334,9.0,37.0,25,0.00,,---,0.00,VWS V15.00,2014-01-16 19:54:00,
2014-01-16 13:55:00,49.2,14.9,29.90,NW,321,13.0,37.0,25,0.00,,---,0.00,VWS V15.00,2014-01-16 19:55:00,
2014-01-16 13:56:00,49.2,14.0,29.90,NNW,329,14.0,37.0,24,0.00,,---,0.00,VWS V15.00,2014-01-16 19:56:00,
2014-01-16 13:57:00,49.1,14.8,29.90,NNW,332,12.0,37.0,25,0.00,,---,0.00,VWS V15.00,2014-01-16 19:57:00,
2014-01-16 13:59:00,49.1,15.7,29.89,WNW,300,28.0,37.0,26,0.00,,---,0.00,VWS V15.00,2014-01-16 19:59:00,
2014-01-16 14:00:00,49.2,15.8,29.89,WNW,296,24.0,25.0,26,0.00,,---,0.00,VWS V15.00,2014-01-16 20:00:00,
2014-01-16 14:01:00,49.2,15.8,29.89,NNW,327,23.0,29.0,26,0.00,,---,0.00,VWS V15.00,2014-01-16 20:01:00,
2014-01-16 14:02:00,49.4,15.1,29.89,WNW,288,22.0,33.0,25,0.00,,---,0.00,VWS V15.00,2014-01-16 20:02:00,
2014-01-16 14:04:00,49.5,14.2,29.89,WNW,290,21.0,33.0,24,0.00,,---,0.00,VWS V15.00,2014-01-16 20:04:00,
2014-01-16 14:06:00,49.5,15.1,29.89,WNW,295,18.0,33.0,25,0.00,,---,0.00,VWS V15.00,2014-01-16 20:06:00,
2014-01-16 14:07:00,49.4,15.1,29.89,WNW,293,28.0,33.0,25,0.00,,---,0.00,VWS V15.00,2014-01-16 20:07:00,
2014-01-16 14:09:00,49.2,14.0,29.89,NW,304,24.0,33.0,24,0.00,,---,0.00,VWS V15.00,2014-01-16 20:09:00,
2014-01-16 14:10:00,49.2,13.0,29.89,WNW,292,22.0,33.0,23,0.00,,---,0.00,VWS V15.00,2014-01-16 20:10:00,
2014-01-16 14:11:00,49.2,13.0,29.89,NW,307,23.0,32.0,23,0.00,,---,0.00,VWS V15.00,2014-01-16 20:11:00,
2014-01-16 14:12:00,49.4,13.2,29.89,WNW,294,31.0,32.0,23,0.00,,---,0.00,VWS V15.00,2014-01-16 20:12:00,
2014-01-16 14:14:00,49.4,13.2,29.90,WNW,290,33.0,40.0,23,0.00,,---,0.00,VWS V15.00,2014-01-16 20:14:00,
2014-01-16 14:16:00,49.4,13.2,29.90,WNW,288,23.0,40.0,23,0.00,,---,0.00,VWS V15.00,2014-01-16 20:16:00,
2014-01-16 14:17:00,49.4,13.2,29.90,WNW,301,19.0,40.0,23,0.00,,---,0.00,VWS V15.00,2014-01-16 20:17:00,
2014-01-16 14:19:00,49.4,13.2,29.90,WNW,290,25.0,40.0,23,0.00,,---,0.00,VWS V15.00,2014-01-16 20:19:00,
2014-01-16 14:20:00,49.2,13.0,29.90,WNW,292,23.0,40.0,23,0.00,,---,0.00,VWS V15.00,2014-01-16 20:20:00,
2014-01-16 14:21:00,49.2,13.0,29.90,WNW,294,32.0,38.0,23,0.00,,---,0.00,VWS V15.00,2014-01-16 20:21:00,
2014-01-16 14:22:00,49.1,12.9,29.90,WNW,292,27.0,38.0,23,0.00,,---,0.00,VWS V15.00,2014-01-16 20:22:00,
2014-01-16 14:23:00,49.1,12.9,29.90,WNW,290,24.0,38.0,23,0.00,,---,0.00,VWS V15.00,2014-01-16 20:23:00,
2014-01-16 14:24:00,48.9,12.8,29.90,WNW,284,22.0,40.0,23,0.00,,---,0.00,VWS V15.00,2014-01-16 20:24:00,
2014-01-16 14:26:00,49.1,11.9,29.90,WNW,288,27.0,40.0,22,0.00,,---,0.00,VWS V15.00,2014-01-16 20:26:00,
2014-01-16 14:27:00,49.1,12.9,29.90,WNW,299,25.0,40.0,23,0.00,,---,0.00,VWS V15.00,2014-01-16 20:27:00,
2014-01-16 14:28:00,49.1,12.9,29.90,WNW,302,10.0,40.0,23,0.00,,---,0.00,VWS V15.00,2014-01-16 20:28:00,
2014-01-16 14:29:00,49.2,13.0,29.90,WNW,293,26.0,40.0,23,0.00,,---,0.00,VWS V15.00,2014-01-16 20:29:00,
2014-01-16 14:30:00,49.2,13.0,29.90,WNW,292,25.0,40.0,23,0.00,,---,0.00,VWS V15.00,2014-01-16 20:30:00,
2014-01-16 14:31:00,49.2,13.0,29.90,NNW,327,15.0,31.0,23,0.00,,---,0.00,VWS V15.00,2014-01-16 20:31:00,
2014-01-16 14:32:00,49.2,13.0,29.90,WNW,286,15.0,31.0,23,0.00,,---,0.00,VWS V15.00,2014-01-16 20:32:00,
2014-01-16 14:33:00,49.2,13.0,29.90,WNW,288,33.0,33.0,23,0.00,,---,0.00,VWS V15.00,2014-01-16 20:33:00,
2014-01-16 14:34:00,49.2,14.0,29.90,West,277,21.0,33.0,24,0.00,,---,0.00,VWS V15.00,2014-01-16 20:34:00,
2014-01-16 14:36:00,49.2,13.0,29.90,WNW,295,14.0,33.0,23,0.00,,---,0.00,VWS V15.00,2014-01-16 20:36:00,
2014-01-16 14:37:00,49.1,13.9,29.90,WNW,289,31.0,33.0,24,0.00,,---,0.00,VWS V15.00,2014-01-16 20:37:00,
2014-01-16 14:38:00,49.1,12.9,29.90,WNW,300,17.0,33.0,23,0.00,,---,0.00,VWS V15.00,2014-01-16 20:38:00,
2014-01-16 14:39:00,49.1,12.9,29.90,NW,306,23.0,33.0,23,0.00,,---,0.00,VWS V15.00,2014-01-16 20:39:00,
2014-01-16 14:40:00,49.1,12.9,29.90,WNW,292,20.0,33.0,23,0.00,,---,0.00,VWS V15.00,2014-01-16 20:40:00,
2014-01-16 14:41:00,49.1,13.9,29.90,NW,311,12.0,21.0,24,0.00,,---,0.00,VWS V15.00,2014-01-16 20:41:00,
2014-01-16 14:42:00,49.2,14.0,29.90,NNW,327,10.0,22.0,24,0.00,,---,0.00,VWS V15.00,2014-01-16 20:42:00,
2014-01-16 14:43:00,49.2,14.0,29.90,WNW,286,18.0,22.0,24,0.00,,---,0.00,VWS V15.00,2014-01-16 20:43:00,
2014-01-16 14:44:00,49.2,14.0,29.90,WNW,302,26.0,35.0,24,0.00,,---,0.00,VWS V15.00,2014-01-16 20:44:00,
2014-01-16 14:46:00,48.9,13.7,29.90,NNW,333,17.0,35.0,24,0.00,,---,0.00,VWS V15.00,2014-01-16 20:46:00,
2014-01-16 14:48:00,48.9,13.7,29.90,NNW,335,22.0,35.0,24,0.00,,---,0.00,VWS V15.00,2014-01-16 20:48:00,
2014-01-16 14:49:00,48.6,12.5,29.90,West,279,19.0,35.0,23,0.00,,---,0.00,VWS V15.00,2014-01-16 20:49:00,
2014-01-16 14:50:00,48.6,12.5,29.90,WNW,292,17.0,35.0,23,0.00,,---,0.00,VWS V15.00,2014-01-16 20:50:00,
2014-01-16 14:51:00,48.5,13.4,29.90,NNW,335,19.0,31.0,24,0.00,,---,0.00,VWS V15.00,2014-01-16 20:51:00,
2014-01-16 14:53:00,48.5,13.4,29.90,NW,317,11.0,31.0,24,0.00,,---,0.00,VWS V15.00,2014-01-16 20:53:00,
2014-01-16 14:54:00,48.3,13.2,29.90,West,279,22.0,31.0,24,0.00,,---,0.00,VWS V15.00,2014-01-16 20:54:00,
2014-01-16 14:56:00,48.3,13.2,29.90,NW,320,23.0,31.0,24,0.00,,---,0.00,VWS V15.00,2014-01-16 20:56:00,
2014-01-16 14:57:00,48.3,13.2,29.90,NW,309,11.0,31.0,24,0.00,,---,0.00,VWS V15.00,2014-01-16 20:57:00,
2014-01-16 14:58:00,48.2,12.1,29.90,NNW,340,12.0,31.0,23,0.00,,---,0.00,VWS V15.00,2014-01-16 20:58:00,
2014-01-16 14:59:00,48.2,12.1,29.91,NNW,341,16.0,31.0,23,0.00,,---,0.00,VWS V15.00,2014-01-16 20:59:00,
2014-01-16 15:00:00,48.2,12.1,29.91,NW,315,16.0,31.0,23,0.00,,---,0.00,VWS V15.00,2014-01-16 21:00:00,
2014-01-16 15:02:00,48.0,12.9,29.91,West,281,7.0,21.0,24,0.00,,---,0.00,VWS V15.00,2014-01-16 21:02:00,
2014-01-16 15:03:00,48.2,13.1,29.91,WNW,288,9.0,21.0,24,0.00,,---,0.00,VWS V15.00,2014-01-16 21:03:00,
2014-01-16 15:04:00,48.2,13.1,29.91,NW,305,7.0,22.0,24,0.00,,---,0.00,VWS V15.00,2014-01-16 21:04:00,
2014-01-16 15:07:00,48.5,13.4,29.91,WNW,283,14.0,25.0,24,0.00,,---,0.00,VWS V15.00,2014-01-16 21:07:00,
2014-01-16 15:08:00,48.5,13.4,29.91,West,270,19.0,25.0,24,0.00,,---,0.00,VWS V15.00,2014-01-16 21:08:00,
2014-01-16 15:09:00,48.6,12.5,29.91,WNW,285,26.0,33.0,23,0.00,,---,0.00,VWS V15.00,2014-01-16 21:09:00,
2014-01-16 15:10:00,48.6,11.5,29.91,WNW,292,15.0,37.0,22,0.00,,---,0.00,VWS V15.00,2014-01-16 21:10:00,
2014-01-16 15:12:00,48.8,12.7,29.91,WNW,290,6.0,33.0,23,0.00,,---,0.00,VWS V15.00,2014-01-16 21:12:00,
2014-01-16 15:13:00,48.8,12.7,29.91,NW,309,10.0,33.0,23,0.00,,---,0.00,VWS V15.00,2014-01-16 21:13:00,
2014-01-16 15:14:00,48.8,12.7,29.91,WNW,294,33.0,33.0,23,0.00,,---,0.00,VWS V15.00,2014-01-16 21:14:00,
2014-01-16 15:17:00,48.6,11.5,29.92,North,355,28.0,35.0,22,0.00,,---,0.00,VWS V15.00,2014-01-16 21:17:00,
2014-01-16 15:18:00,48.6,14.4,29.92,NNW,329,26.0,35.0,25,0.00,,---,0.00,VWS V15.00,2014-01-16 21:18:00,
2014-01-16 15:19:00,48.6,11.5,29.92,WNW,296,25.0,38.0,22,0.00,,---,0.00,VWS V15.00,2014-01-16 21:19:00,
2014-01-16 15:20:00,48.6,11.5,29.92,WNW,292,21.0,39.0,22,0.00,,---,0.00,VWS V15.00,2014-01-16 21:20:00,
2014-01-16 15:22:00,48.8,11.7,29.92,WNW,289,18.0,30.0,22,0.00,,---,0.00,VWS V15.00,2014-01-16 21:22:00,
2014-01-16 15:23:00,48.8,12.7,29.92,West,274,18.0,30.0,23,0.00,,---,0.00,VWS V15.00,2014-01-16 21:23:00,
2014-01-16 15:24:00,48.8,12.7,29.92,WNW,288,25.0,31.0,23,0.00,,---,0.00,VWS V15.00,2014-01-16 21:24:00,
2014-01-16 15:27:00,48.5,12.4,29.92,WNW,292,19.0,33.0,23,0.00,,---,0.00,VWS V15.00,2014-01-16 21:27:00,
2014-01-16 15:28:00,48.5,12.4,29.92,WNW,287,22.0,33.0,23,0.00,,---,0.00,VWS V15.00,2014-01-16 21:28:00,
2014-01-16 15:29:00,48.3,13.2,29.92,NW,311,23.0,33.0,24,0.00,,---,0.00,VWS V15.00,2014-01-16 21:29:00,
2014-01-16 15:30:00,48.2,12.1,29.93,WNW,292,19.0,33.0,23,0.00,,---,0.00,VWS V15.00,2014-01-16 21:30:00,
2014-01-16 15:32:00,47.9,11.9,29.93,WNW,284,25.0,40.0,23,0.00,,---,0.00,VWS V15.00,2014-01-16 21:32:00,
2014-01-16 15:33:00,47.9,11.9,29.93,WNW,300,10.0,40.0,23,0.00,,---,0.00,VWS V15.00,2014-01-16 21:33:00,
2014-01-16 15:34:00,47.9,11.9,29.93,NNW,337,17.0,40.0,23,0.00,,---,0.00,VWS V15.00,2014-01-16 21:34:00,
2014-01-16 15:38:00,47.7,12.7,29.93,NW,318,11.0,40.0,24,0.00,,---,0.00,VWS V15.00,2014-01-16 21:38:00,
2014-01-16 15:39:00,47.7,13.6,29.93,WNW,297,13.0,40.0,25,0.00,,---,0.00,VWS V15.00,2014-01-16 21:39:00,
2014-01-16 15:40:00,47.6,13.5,29.93,WNW,286,15.0,40.0,25,0.00,,---,0.00,VWS V15.00,2014-01-16 21:40:00,
2014-01-16 15:43:00,47.4,14.2,29.93,NW,308,20.0,31.0,26,0.00,,---,0.00,VWS V15.00,2014-01-16 21:43:00,
2014-01-16 15:44:00,47.3,14.2,29.93,NNW,341,18.0,31.0,26,0.00,,---,0.00,VWS V15.00,2014-01-16 21:44:00,
2014-01-16 15:45:00,47.1,14.0,29.95,North,355,12.0,31.0,26,0.00,,---,0.00,VWS V15.00,2014-01-16 21:45:00,
2014-01-16 15:48:00,46.8,13.7,29.95,NNW,333,29.0,31.0,26,0.00,,---,0.00,VWS V15.00,2014-01-16 21:48:00,
2014-01-16 15:49:00,46.8,13.7,29.95,WNW,303,14.0,31.0,26,0.00,,---,0.00,VWS V15.00,2014-01-16 21:49:00,
2014-01-16 15:50:00,46.7,13.6,29.95,NW,309,18.0,31.0,26,0.00,,---,0.00,VWS V15.00,2014-01-16 21:50:00,
2014-01-16 15:53:00,46.4,14.2,29.95,WNW,289,19.0,33.0,27,0.00,,---,0.00,VWS V15.00,2014-01-16 21:53:00,
2014-01-16 15:54:00,46.4,14.2,29.95,NNW,340,20.0,33.0,27,0.00,,---,0.00,VWS V15.00,2014-01-16 21:54:00,
2014-01-16 15:55:00,46.2,14.1,29.95,WNW,284,14.0,33.0,27,0.00,,---,0.00,VWS V15.00,2014-01-16 21:55:00,
2014-01-16 15:58:00,46.1,14.0,29.95,NNW,348,6.0,33.0,27,0.00,,---,0.00,VWS V15.00,2014-01-16 21:58:00,
2014-01-16 15:59:00,46.1,14.8,29.95,NNW,347,20.0,33.0,28,0.00,,---,0.00,VWS V15.00,2014-01-16 21:59:00,
2014-01-16 16:00:00,46.1,14.8,29.96,WNW,288,12.0,33.0,28,0.00,,---,0.00,VWS V15.00,2014-01-16 22:00:00,
2014-01-16 16:03:00,46.0,14.7,29.96,NW,315,19.0,22.0,28,0.00,,---,0.00,VWS V15.00,2014-01-16 22:03:00,
2014-01-16 16:04:00,46.0,14.7,29.96,North,350,19.0,25.0,28,0.00,,---,0.00,VWS V15.00,2014-01-16 22:04:00,
2014-01-16 16:05:00,45.8,14.6,29.96,North,355,14.0,28.0,28,0.00,,---,0.00,VWS V15.00,2014-01-16 22:05:00,
2014-01-16 16:08:00,45.5,15.1,29.96,WNW,296,13.0,28.0,29,0.00,,---,0.00,VWS V15.00,2014-01-16 22:08:00,
2014-01-16 16:09:00,45.5,15.1,29.96,NW,314,22.0,28.0,29,0.00,,---,0.00,VWS V15.00,2014-01-16 22:09:00,
2014-01-16 16:10:00,45.4,14.2,29.96,WNW,298,14.0,28.0,28,0.00,,---,0.00,VWS V15.00,2014-01-16 22:10:00,
2014-01-16 16:14:00,45.2,14.1,29.96,NW,325,7.0,29.0,28,0.00,,---,0.00,VWS V15.00,2014-01-16 22:14:00,
2014-01-16 16:15:00,45.1,14.8,29.97,NW,317,8.0,29.0,29,0.00,,---,0.00,VWS V15.00,2014-01-16 22:15:00,
2014-01-16 16:19:00,44.9,14.6,29.97,North,355,13.0,31.0,29,0.00,,---,0.00,VWS V15.00,2014-01-16 22:19:00,
2014-01-16 16:20:00,44.9,14.6,29.97,NW,308,17.0,31.0,29,0.00,,---,0.00,VWS V15.00,2014-01-16 22:20:00,
2014-01-16 16:21:00,44.9,13.8,29.97,NW,316,16.0,26.0,28,0.00,,---,0.00,VWS V15.00,2014-01-16 22:21:00,
2014-01-16 16:24:00,44.8,13.7,29.97,West,277,9.0,28.0,28,0.00,,---,0.00,VWS V15.00,2014-01-16 22:24:00,
2014-01-16 16:25:00,44.8,12.9,29.97,NW,319,5.0,28.0,27,0.00,,---,0.00,VWS V15.00,2014-01-16 22:25:00,
2014-01-16 16:26:00,44.6,13.5,29.97,NW,309,8.0,28.0,28,0.00,,---,0.00,VWS V15.00,2014-01-16 22:26:00,
2014-01-16 16:29:00,44.6,13.5,29.97,NNW,346,17.0,28.0,28,0.00,,---,0.00,VWS V15.00,2014-01-16 22:29:00,
2014-01-16 16:30:00,44.5,13.4,29.98,WNW,302,11.0,28.0,28,0.00,,---,0.00,VWS V15.00,2014-01-16 22:30:00,
2014-01-16 16:31:00,44.5,13.4,29.98,North,11,11.0,25.0,28,0.00,,---,0.00,VWS V15.00,2014-01-16 22:31:00,
2014-01-16 16:34:00,44.2,13.2,29.98,NW,321,6.0,25.0,28,0.00,,---,0.00,VWS V15.00,2014-01-16 22:34:00,
2014-01-16 16:35:00,44.1,12.3,29.98,NW,314,11.0,25.0,27,0.00,,---,0.00,VWS V15.00,2014-01-16 22:35:00,
2014-01-16 16:36:00,44.1,13.1,29.98,WNW,290,17.0,25.0,28,0.00,,---,0.00,VWS V15.00,2014-01-16 22:36:00,
2014-01-16 16:39:00,43.8,12.0,29.98,NNW,344,13.0,32.0,27,0.00,,---,0.00,VWS V15.00,2014-01-16 22:39:00,
2014-01-16 16:40:00,43.8,12.8,29.98,NW,325,9.0,32.0,28,0.00,,---,0.00,VWS V15.00,2014-01-16 22:40:00,
2014-01-16 16:41:00,43.6,12.7,29.98,NNW,336,4.0,21.0,28,0.00,,---,0.00,VWS V15.00,2014-01-16 22:41:00,
2014-01-16 16:44:00,43.5,13.4,29.99,NNW,338,14.0,22.0,29,0.00,,---,0.00,VWS V15.00,2014-01-16 22:44:00,
2014-01-16 16:45:00,43.5,13.4,29.99,NNE,27,22.0,22.0,29,0.00,,---,0.00,VWS V15.00,2014-01-16 22:45:00,
2014-01-16 16:46:00,43.3,13.2,29.99,NW,309,5.0,22.0,29,0.00,,---,0.00,VWS V15.00,2014-01-16 22:46:00,
2014-01-16 16:50:00,43.2,13.9,29.99,NW,326,16.0,22.0,30,0.00,,---,0.00,VWS V15.00,2014-01-16 22:50:00,
2014-01-16 16:51:00,43.2,13.9,29.99,NW,313,13.0,21.0,30,0.00,,---,0.00,VWS V15.00,2014-01-16 22:51:00,
2014-01-16 16:54:00,43.1,14.5,29.99,NNW,331,13.0,21.0,31,0.00,,---,0.00,VWS V15.00,2014-01-16 22:54:00,
2014-01-16 16:55:00,43.1,13.8,29.99,NW,323,9.0,23.0,30,0.00,,---,0.00,VWS V15.00,2014-01-16 22:55:00,
2014-01-16 16:56:00,43.1,13.8,29.99,NW,304,15.0,23.0,30,0.00,,---,0.00,VWS V15.00,2014-01-16 22:56:00,
2014-01-16 17:00:00,42.9,13.6,29.99,NNW,347,20.0,25.0,30,0.00,,---,0.00,VWS V15.00,2014-01-16 23:00:00,
2014-01-16 17:01:00,42.8,13.5,29.99,NW,322,14.0,19.0,30,0.00,,---,0.00,VWS V15.00,2014-01-16 23:01:00,
2014-01-16 17:05:00,42.6,13.4,29.99,NNW,333,17.0,28.0,30,0.00,,---,0.00,VWS V15.00,2014-01-16 23:05:00,
2014-01-16 17:06:00,42.5,13.3,29.99,NNW,341,5.0,28.0,30,0.00,,---,0.00,VWS V15.00,2014-01-16 23:06:00,
2014-01-16 17:10:00,42.3,13.1,29.99,WNW,284,7.0,28.0,30,0.00,,---,0.00,VWS V15.00,2014-01-16 23:10:00,
2014-01-16 17:11:00,42.2,13.0,29.99,NNW,330,17.0,20.0,30,0.00,,---,0.00,VWS V15.00,2014-01-16 23:11:00,
2014-01-16 17:15:00,42.2,13.0,30.00,WNW,292,11.0,26.0,30,0.00,,---,0.00,VWS V15.00,2014-01-16 23:15:00,
2014-01-16 17:16:00,42.1,12.9,30.00,WNW,294,5.0,26.0,30,0.00,,---,0.00,VWS V15.00,2014-01-16 23:16:00,
2014-01-16 17:20:00,41.9,12.7,30.00,NW,307,6.0,26.0,30,0.00,,---,0.00,VWS V15.00,2014-01-16 23:20:00,
2014-01-16 17:21:00,41.9,13.5,30.00,NNW,327,6.0,17.0,31,0.00,,---,0.00,VWS V15.00,2014-01-16 23:21:00,
2014-01-16 17:25:00,41.6,12.5,30.00,NW,323,9.0,21.0,30,0.00,,---,0.00,VWS V15.00,2014-01-16 23:25:00,
2014-01-16 17:26:00,41.6,12.5,30.00,NW,310,8.0,21.0,30,0.00,,---,0.00,VWS V15.00,2014-01-16 23:26:00,
2014-01-16 17:30:00,41.6,12.5,30.01,WNW,303,10.0,24.0,30,0.00,,---,0.00,VWS V15.00,2014-01-16 23:30:00,
2014-01-16 17:31:00,41.6,13.2,30.01,NW,305,7.0,14.0,31,0.00,,---,0.00,VWS V15.00,2014-01-16 23:31:00,
2014-01-16 17:35:00,41.5,12.4,30.01,NW,324,9.0,23.0,30,0.00,,---,0.00,VWS V15.00,2014-01-16 23:35:00,
2014-01-16 17:36:00,41.5,12.4,30.01,NW,323,13.0,23.0,30,0.00,,---,0.00,VWS V15.00,2014-01-16 23:36:00,
2014-01-16 17:40:00,41.3,13.0,30.01,NW,306,9.0,23.0,31,0.00,,---,0.00,VWS V15.00,2014-01-16 23:40:00,
2014-01-16 17:41:00,41.3,13.0,30.01,NW,317,9.0,16.0,31,0.00,,---,0.00,VWS V15.00,2014-01-16 23:41:00,
2014-01-16 17:45:00,41.2,12.1,30.01,NW,305,6.0,26.0,30,0.00,,---,0.00,VWS V15.00,2014-01-16 23:45:00,
2014-01-16 17:46:00,41.2,12.1,30.01,NW,315,10.0,26.0,30,0.00,,---,0.00,VWS V15.00,2014-01-16 23:46:00,
2014-01-16 17:47:00,41.2,12.1,30.01,West,277,16.0,26.0,30,0.00,,---,0.00,VWS V15.00,2014-01-16 23:47:00,
2014-01-16 17:50:00,41.2,12.1,30.01,North,350,11.0,12.0,30,0.00,,---,0.00,VWS V15.00,2014-01-16 23:50:00,
2014-01-16 17:51:00,41.2,12.1,30.01,NW,305,8.0,12.0,30,0.00,,---,0.00,VWS V15.00,2014-01-16 23:51:00,
2014-01-16 17:52:00,41.2,12.1,30.01,NW,316,17.0,17.0,30,0.00,,---,0.00,VWS V15.00,2014-01-16 23:52:00,
2014-01-16 17:55:00,41.1,12.8,30.01,NW,307,15.0,19.0,31,0.00,,---,0.00,VWS V15.00,2014-01-16 23:55:00,
2014-01-16 17:56:00,40.9,12.6,30.01,NW,315,9.0,23.0,31,0.00,,---,0.00,VWS V15.00,2014-01-16 23:56:00,
2014-01-16 17:57:00,40.9,12.6,30.01,NW,305,27.0,27.0,31,0.00,,---,0.00,VWS V15.00,2014-01-16 23:57:00,
2014-01-16 18:00:00,40.9,11.9,30.02,NW,315,12.0,27.0,30,0.00,,---,0.00,VWS V15.00,2014-01-17 00:00:00,
2014-01-16 18:01:00,40.9,12.6,30.02,NNW,347,14.0,18.0,31,0.00,,---,0.00,VWS V15.00,2014-01-17 00:01:00,
2014-01-16 18:02:00,40.9,12.6,30.02,NW,306,12.0,18.0,31,0.00,,---,0.00,VWS V15.00,2014-01-17 00:02:00,
2014-01-16 18:06:00,40.8,12.5,30.02,WNW,298,10.0,18.0,31,0.00,,---,0.00,VWS V15.00,2014-01-17 00:06:00,
2014-01-16 18:07:00,40.8,12.5,30.02,NW,323,4.0,18.0,31,0.00,,---,0.00,VWS V15.00,2014-01-17 00:07:00,
2014-01-16 18:10:00,40.6,13.1,30.02,WNW,292,10.0,18.0,32,0.00,,---,0.00,VWS V15.00,2014-01-17 00:10:00,
2014-01-16 18:11:00,40.6,13.1,30.02,WNW,302,15.0,17.0,32,0.00,,---,0.00,VWS V15.00,2014-01-17 00:11:00,
2014-01-16 18:12:00,40.5,13.0,30.02,WNW,288,6.0,17.0,32,0.00,,---,0.00,VWS V15.00,2014-01-17 00:12:00,
2014-01-16 18:16:00,40.2,13.4,30.03,WNW,302,8.0,20.0,33,0.00,,---,0.00,VWS V15.00,2014-01-17 00:16:00,
2014-01-16 18:17:00,40.2,12.7,30.03,West,280,14.0,20.0,32,0.00,,---,0.00,VWS V15.00,2014-01-17 00:17:00,
2014-01-16 18:20:00,40.1,12.6,30.03,WNW,292,11.0,21.0,32,0.00,,---,0.00,VWS V15.00,2014-01-17 00:20:00,
2014-01-16 18:21:00,40.1,12.6,30.03,WNW,290,23.0,27.0,32,0.00,,---,0.00,VWS V15.00,2014-01-17 00:21:00,
2014-01-16 18:22:00,40.1,12.6,30.03,NW,321,7.0,27.0,32,0.00,,---,0.00,VWS V15.00,2014-01-17 00:22:00,
2014-01-16 18:23:00,40.1,12.6,30.03,NW,306,6.0,27.0,32,0.00,,---,0.00,VWS V15.00,2014-01-17 00:23:00,
2014-01-16 18:26:00,40.1,12.6,30.03,NNW,346,21.0,27.0,32,0.00,,---,0.00,VWS V15.00,2014-01-17 00:26:00,
2014-01-16 18:27:00,40.1,12.6,30.03,NNW,336,14.0,27.0,32,0.00,,---,0.00,VWS V15.00,2014-01-17 00:27:00,
2014-01-16 18:28:00,40.1,12.6,30.03,NNW,346,14.0,27.0,32,0.00,,---,0.00,VWS V15.00,2014-01-17 00:28:00,
2014-01-16 18:30:00,40.1,13.3,30.04,NW,315,12.0,27.0,33,0.00,,---,0.00,VWS V15.00,2014-01-17 00:30:00,
2014-01-16 18:31:00,40.1,12.6,30.04,WNW,303,15.0,15.0,32,0.00,,---,0.00,VWS V15.00,2014-01-17 00:31:00,
2014-01-16 18:32:00,40.1,12.6,30.04,WNW,296,7.0,21.0,32,0.00,,---,0.00,VWS V15.00,2014-01-17 00:32:00,
2014-01-16 18:33:00,40.1,12.6,30.04,NW,317,10.0,21.0,32,0.00,,---,0.00,VWS V15.00,2014-01-17 00:33:00,
2014-01-16 18:36:00,39.9,12.4,30.04,WNW,292,19.0,25.0,32,0.00,,---,0.00,VWS V15.00,2014-01-17 00:36:00,
2014-01-16 18:37:00,39.9,12.4,30.04,WNW,300,18.0,25.0,32,0.00,,---,0.00,VWS V15.00,2014-01-17 00:37:00,
2014-01-16 18:38:00,39.9,12.4,30.04,NW,309,10.0,25.0,32,0.00,,---,0.00,VWS V15.00,2014-01-17 00:38:00,
2014-01-16 18:40:00,39.9,12.4,30.04,WNW,292,12.0,25.0,32,0.00,,---,0.00,VWS V15.00,2014-01-17 00:40:00,
2014-01-16 18:41:00,39.8,12.4,30.04,NW,304,18.0,18.0,32,0.00,,---,0.00,VWS V15.00,2014-01-17 00:41:00,
2014-01-16 18:42:00,39.8,13.1,30.04,NW,310,13.0,18.0,33,0.00,,---,0.00,VWS V15.00,2014-01-17 00:42:00,
2014-01-16 18:43:00,39.8,13.1,30.04,NW,310,22.0,27.0,33,0.00,,---,0.00,VWS V15.00,2014-01-17 00:43:00,
2014-01-16 18:46:00,39.6,12.9,30.04,WNW,286,14.0,27.0,33,0.00,,---,0.00,VWS V15.00,2014-01-17 00:46:00,
2014-01-16 18:47:00,39.6,12.9,30.04,West,272,14.0,27.0,33,0.00,,---,0.00,VWS V15.00,2014-01-17 00:47:00,
2014-01-16 18:48:00,39.5,13.5,30.04,WNW,297,9.0,27.0,34,0.00,,---,0.00,VWS V15.00,2014-01-17 00:48:00,
2014-01-16 18:50:00,39.3,12.6,30.04,WNW,292,11.0,27.0,33,0.00,,---,0.00,VWS V15.00,2014-01-17 00:50:00,
2014-01-16 18:51:00,39.3,13.3,30.04,WNW,290,12.0,15.0,34,0.00,,---,0.00,VWS V15.00,2014-01-17 00:51:00,
2014-01-16 18:52:00,39.3,13.3,30.04,NW,306,6.0,17.0,34,0.00,,---,0.00,VWS V15.00,2014-01-17 00:52:00,
2014-01-16 18:53:00,39.2,13.2,30.04,NNW,332,9.0,19.0,34,0.00,,---,0.00,VWS V15.00,2014-01-17 00:53:00,
2014-01-16 18:56:00,39.2,13.2,30.04,NNW,340,13.0,20.0,34,0.00,,---,0.00,VWS V15.00,2014-01-17 00:56:00,
2014-01-16 18:57:00,39.2,13.2,30.04,WNW,283,8.0,20.0,34,0.00,,---,0.00,VWS V15.00,2014-01-17 00:57:00,
2014-01-16 18:58:00,39.1,13.1,30.04,WNW,300,9.0,20.0,34,0.00,,---,0.00,VWS V15.00,2014-01-17 00:58:00,
2014-01-16 19:00:00,39.1,13.1,30.05,NW,315,11.0,20.0,34,0.00,,---,0.00,VWS V15.00,2014-01-17 01:00:00,
2014-01-16 19:01:00,39.1,13.1,30.05,NNW,327,11.0,16.0,34,0.00,,---,0.00,VWS V15.00,2014-01-17 01:01:00,
2014-01-16 19:02:00,39.1,13.1,30.05,WNW,285,6.0,16.0,34,0.00,,---,0.00,VWS V15.00,2014-01-17 01:02:00,
2014-01-16 19:03:00,39.1,13.1,30.05,WNW,298,16.0,26.0,34,0.00,,---,0.00,VWS V15.00,2014-01-17 01:03:00,
2014-01-16 19:06:00,38.9,12.9,30.05,NW,304,11.0,26.0,34,0.00,,---,0.00,VWS V15.00,2014-01-17 01:06:00,
2014-01-16 19:07:00,38.9,12.9,30.05,NNW,333,13.0,26.0,34,0.00,,---,0.00,VWS V15.00,2014-01-17 01:07:00,
2014-01-16 19:08:00,38.9,13.6,30.05,WNW,293,10.0,26.0,35,0.00,,---,0.00,VWS V15.00,2014-01-17 01:08:00,
2014-01-16 19:10:00,38.8,13.5,30.05,WNW,292,11.0,26.0,35,0.00,,---,0.00,VWS V15.00,2014-01-17 01:10:00,
2014-01-16 19:11:00,38.8,13.5,30.05,WNW,300,9.0,14.0,35,0.00,,---,0.00,VWS V15.00,2014-01-17 01:11:00,
2014-01-16 19:12:00,38.8,13.5,30.05,NNW,339,18.0,24.0,35,0.00,,---,0.00,VWS V15.00,2014-01-17 01:12:00,
2014-01-16 19:13:00,38.8,13.5,30.05,WNW,297,5.0,24.0,35,0.00,,---,0.00,VWS V15.00,2014-01-17 01:13:00,
2014-01-16 19:16:00,38.6,14.0,30.07,WNW,296,14.0,24.0,36,0.00,,---,0.00,VWS V15.00,2014-01-17 01:16:00,
2014-01-16 19:17:00,38.6,13.3,30.07,NW,315,12.0,24.0,35,0.00,,---,0.00,VWS V15.00,2014-01-17 01:17:00,
2014-01-16 19:18:00,38.6,13.3,30.07,NW,321,10.0,24.0,35,0.00,,---,0.00,VWS V15.00,2014-01-17 01:18:00,
2014-01-16 19:20:00,38.6,14.0,30.07,WNW,292,11.0,24.0,36,0.00,,---,0.00,VWS V15.00,2014-01-17 01:20:00,
2014-01-16 19:21:00,38.5,13.9,30.07,NNE,25,13.0,23.0,36,0.00,,---,0.00,VWS V15.00,2014-01-17 01:21:00,
2014-01-16 19:22:00,38.5,13.9,30.07,WNW,293,4.0,23.0,36,0.00,,---,0.00,VWS V15.00,2014-01-17 01:22:00,
2014-01-16 19:23:00,38.5,13.9,30.07,NNW,344,16.0,23.0,36,0.00,,---,0.00,VWS V15.00,2014-01-17 01:23:00,
2014-01-16 19:26:00,38.5,14.5,30.07,NNW,338,13.0,23.0,37,0.00,,---,0.00,VWS V15.00,2014-01-17 01:26:00,
2014-01-16 19:27:00,38.3,14.3,30.07,NW,324,15.0,23.0,37,0.00,,---,0.00,VWS V15.00,2014-01-17 01:27:00,
2014-01-16 19:28:00,38.3,14.3,30.07,NNW,327,11.0,23.0,37,0.00,,---,0.00,VWS V15.00,2014-01-17 01:28:00,
2014-01-16 19:30:00,38.3,14.3,30.07,NW,315,10.0,23.0,37,0.00,,---,0.00,VWS V15.00,2014-01-17 01:30:00,
2014-01-16 19:32:00,38.3,14.3,30.07,North,349,10.0,16.0,37,0.00,,---,0.00,VWS V15.00,2014-01-17 01:32:00,
2014-01-16 19:33:00,38.2,14.8,30.07,NNW,331,12.0,17.0,38,0.00,,---,0.00,VWS V15.00,2014-01-17 01:33:00,
2014-01-16 19:34:00,38.2,14.8,30.07,WNW,297,7.0,17.0,38,0.00,,---,0.00,VWS V15.00,2014-01-17 01:34:00,
2014-01-16 19:37:00,38.0,14.7,30.07,NNW,342,15.0,21.0,38,0.00,,---,0.00,VWS V15.00,2014-01-17 01:37:00,
2014-01-16 19:38:00,38.0,14.7,30.07,NW,306,5.0,21.0,38,0.00,,---,0.00,VWS V15.00,2014-01-17 01:38:00,
2014-01-16 19:39:00,38.0,15.3,30.07,NNW,329,6.0,21.0,39,0.00,,---,0.00,VWS V15.00,2014-01-17 01:39:00,
2014-01-16 19:40:00,37.9,15.2,30.07,NW,315,9.0,21.0,39,0.00,,---,0.00,VWS V15.00,2014-01-17 01:40:00,
2014-01-16 19:42:00,37.9,15.2,30.07,WNW,300,9.0,12.0,39,0.00,,---,0.00,VWS V15.00,2014-01-17 01:42:00,
2014-01-16 19:43:00,37.8,15.7,30.07,North,9,7.0,18.0,40,0.00,,---,0.00,VWS V15.00,2014-01-17 01:43:00,
2014-01-16 19:44:00,37.8,15.1,30.07,NNW,331,6.0,19.0,39,0.00,,---,0.00,VWS V15.00,2014-01-17 01:44:00,
2014-01-16 19:47:00,37.6,15.5,30.09,WNW,303,7.0,20.0,40,0.00,,---,0.00,VWS V15.00,2014-01-17 01:47:00,
2014-01-16 19:48:00,37.6,15.5,30.09,WNW,302,13.0,22.0,40,0.00,,---,0.00,VWS V15.00,2014-01-17 01:48:00,
2014-01-16 19:49:00,37.6,15.5,30.09,NNW,329,5.0,22.0,40,0.00,,---,0.00,VWS V15.00,2014-01-17 01:49:00,
2014-01-16 19:50:00,37.6,15.5,30.09,NW,315,11.0,30.0,40,0.00,,---,0.00,VWS V15.00,2014-01-17 01:50:00,
2014-01-16 19:52:00,37.6,15.5,30.09,WNW,289,14.0,25.0,40,0.00,,---,0.00,VWS V15.00,2014-01-17 01:52:00,
2014-01-16 19:53:00,37.6,15.5,30.09,WNW,300,10.0,25.0,40,0.00,,---,0.00,VWS V15.00,2014-01-17 01:53:00,
2014-01-16 19:54:00,37.5,16.0,30.09,WNW,290,8.0,25.0,41,0.00,,---,0.00,VWS V15.00,2014-01-17 01:54:00,
2014-01-16 19:57:00,37.3,15.8,30.09,NW,309,18.0,25.0,41,0.00,,---,0.00,VWS V15.00,2014-01-17 01:57:00,
2014-01-16 19:58:00,37.3,15.8,30.09,WNW,292,4.0,25.0,41,0.00,,---,0.00,VWS V15.00,2014-01-17 01:58:00,
2014-01-16 19:59:00,37.3,15.8,30.09,NNW,327,11.0,25.0,41,0.00,,---,0.00,VWS V15.00,2014-01-17 01:59:00,
2014-01-16 20:00:00,37.2,15.7,30.09,NW,315,12.0,25.0,41,0.00,,---,0.00,VWS V15.00,2014-01-17 02:00:00,
2014-01-16 20:02:00,37.0,15.5,30.09,NNW,337,12.0,22.0,41,0.00,,---,0.00,VWS V15.00,2014-01-17 02:02:00,
2014-01-16 20:03:00,37.0,15.5,30.09,WNW,288,15.0,23.0,41,0.00,,---,0.00,VWS V15.00,2014-01-17 02:03:00,
2014-01-16 20:04:00,37.0,15.5,30.09,NW,325,15.0,25.0,41,0.00,,---,0.00,VWS V15.00,2014-01-17 02:04:00,
2014-01-16 20:07:00,36.9,15.4,30.09,NW,319,7.0,25.0,41,0.00,,---,0.00,VWS V15.00,2014-01-17 02:07:00,
2014-01-16 20:08:00,36.9,16.0,30.09,WNW,300,7.0,25.0,42,0.00,,---,0.00,VWS V15.00,2014-01-17 02:08:00,
2014-01-16 20:09:00,36.9,16.0,30.09,NW,319,9.0,25.0,42,0.00,,---,0.00,VWS V15.00,2014-01-17 02:09:00,
2014-01-16 20:10:00,36.8,15.9,30.09,NW,315,13.0,26.0,42,0.00,,---,0.00,VWS V15.00,2014-01-17 02:10:00,
2014-01-16 20:12:00,36.8,15.3,30.09,NNW,340,12.0,27.0,41,0.00,,---,0.00,VWS V15.00,2014-01-17 02:12:00,
2014-01-16 20:13:00,36.8,15.3,30.09,WNW,302,11.0,27.0,41,0.00,,---,0.00,VWS V15.00,2014-01-17 02:13:00,
2014-01-16 20:14:00,36.6,15.1,30.10,NW,325,17.0,27.0,41,0.00,,---,0.00,VWS V15.00,2014-01-17 02:14:00,
2014-01-16 20:15:00,36.6,15.1,30.10,WNW,294,15.0,27.0,41,0.00,,---,0.00,VWS V15.00,2014-01-17 02:15:00,
2014-01-16 20:17:00,36.6,15.1,30.10,NW,306,6.0,27.0,41,0.00,,---,0.00,VWS V15.00,2014-01-17 02:17:00,
2014-01-16 20:18:00,36.5,15.6,30.10,NW,304,14.0,27.0,42,0.00,,---,0.00,VWS V15.00,2014-01-17 02:18:00,
2014-01-16 20:19:00,36.5,15.1,30.10,NW,317,10.0,27.0,41,0.00,,---,0.00,VWS V15.00,2014-01-17 02:19:00,
2014-01-16 20:20:00,36.5,15.1,30.10,NNW,331,11.0,27.0,41,0.00,,---,0.00,VWS V15.00,2014-01-17 02:20:00,
2014-01-16 20:22:00,36.3,14.9,30.10,NW,322,14.0,28.0,41,0.00,,---,0.00,VWS V15.00,2014-01-17 02:22:00,
2014-01-16 20:23:00,36.3,14.9,30.10,North,355,5.0,28.0,41,0.00,,---,0.00,VWS V15.00,2014-01-17 02:23:00,
2014-01-16 20:24:00,36.2,15.3,30.10,North,5,7.0,28.0,42,0.00,,---,0.00,VWS V15.00,2014-01-17 02:24:00,
2014-01-16 20:25:00,36.2,14.8,30.10,North,5,12.0,28.0,41,0.00,,---,0.00,VWS V15.00,2014-01-17 02:25:00,
2014-01-16 20:27:00,36.0,15.1,30.10,NNW,344,9.0,28.0,42,0.00,,---,0.00,VWS V15.00,2014-01-17 02:27:00,
2014-01-16 20:28:00,35.9,15.1,30.10,North,350,15.0,28.0,42,0.00,,---,0.00,VWS V15.00,2014-01-17 02:28:00,
2014-01-16 20:29:00,35.6,15.3,30.12,North,11,7.0,28.0,43,0.00,,---,0.00,VWS V15.00,2014-01-17 02:29:00,
2014-01-16 20:30:00,35.5,15.2,30.12,NNE,32,10.0,14.0,43,0.00,,---,0.00,VWS V15.00,2014-01-17 02:30:00,
2014-01-16 20:32:00,35.0,15.3,30.12,North,360,12.0,18.0,44,0.00,,---,0.00,VWS V15.00,2014-01-17 02:32:00,
2014-01-16 20:33:00,34.9,14.7,30.12,NNW,344,13.0,20.0,43,0.00,,---,0.00,VWS V15.00,2014-01-17 02:33:00,
2014-01-16 20:34:00,34.6,14.9,30.12,North,355,5.0,20.0,44,0.00,,---,0.00,VWS V15.00,2014-01-17 02:34:00,
2014-01-16 20:35:00,34.4,14.8,30.12,North,351,11.0,20.0,44,0.00,,---,0.00,VWS V15.00,2014-01-17 02:35:00,
2014-01-16 20:37:00,34.1,15.0,30.12,NNW,341,12.0,20.0,45,0.00,,---,0.00,VWS V15.00,2014-01-17 02:37:00,
2014-01-16 20:38:00,34.1,15.0,30.12,NNE,13,14.0,20.0,45,0.00,,---,0.00,VWS V15.00,2014-01-17 02:38:00,
2014-01-16 20:39:00,33.8,14.7,30.12,North,360,13.0,20.0,45,0.00,,---,0.00,VWS V15.00,2014-01-17 02:39:00,
2014-01-16 20:40:00,33.7,14.6,30.12,North,5,10.0,19.0,45,0.00,,---,0.00,VWS V15.00,2014-01-17 02:40:00,
2014-01-16 20:42:00,33.5,13.9,30.12,NNW,340,5.0,21.0,44,0.00,,---,0.00,VWS V15.00,2014-01-17 02:42:00,
2014-01-16 20:43:00,33.4,14.4,30.12,North,349,10.0,21.0,45,0.00,,---,0.00,VWS V15.00,2014-01-17 02:43:00,
2014-01-16 20:44:00,33.2,14.2,30.12,NNW,331,6.0,21.0,45,0.00,,---,0.00,VWS V15.00,2014-01-17 02:44:00,
2014-01-16 20:45:00,33.2,14.2,30.14,North,360,14.0,21.0,45,0.00,,---,0.00,VWS V15.00,2014-01-17 02:45:00,
2014-01-16 20:47:00,32.9,13.9,30.14,North,355,8.0,21.0,45,0.00,,---,0.00,VWS V15.00,2014-01-17 02:47:00,
2014-01-16 20:48:00,32.9,13.9,30.14,North,355,11.0,21.0,45,0.00,,---,0.00,VWS V15.00,2014-01-17 02:48:00,
2014-01-16 20:49:00,32.9,13.9,30.14,North,5,7.0,21.0,45,0.00,,---,0.00,VWS V15.00,2014-01-17 02:49:00,
2014-01-16 20:50:00,32.8,13.8,30.14,NNW,335,10.0,21.0,45,0.00,,---,0.00,VWS V15.00,2014-01-17 02:50:00,
2014-01-16 20:51:00,32.8,13.8,30.14,North,355,7.0,12.0,45,0.00,,---,0.00,VWS V15.00,2014-01-17 02:51:00,
2014-01-16 20:52:00,32.7,13.7,30.14,North,350,12.0,14.0,45,0.00,,---,0.00,VWS V15.00,2014-01-17 02:52:00,
2014-01-16 20:53:00,32.7,13.7,30.14,North,11,6.0,14.0,45,0.00,,---,0.00,VWS V15.00,2014-01-17 02:53:00,
2014-01-16 20:54:00,32.5,14.0,30.14,NNE,18,6.0,14.0,46,0.00,,---,0.00,VWS V15.00,2014-01-17 02:54:00,
2014-01-16 20:55:00,32.5,14.0,30.14,NNW,346,9.0,14.0,46,0.00,,---,0.00,VWS V15.00,2014-01-17 02:55:00,
2014-01-16 20:56:00,32.4,13.9,30.14,NNW,348,4.0,14.0,46,0.00,,---,0.00,VWS V15.00,2014-01-17 02:56:00,
2014-01-16 20:57:00,32.4,14.4,30.14,NE,34,13.0,14.0,47,0.00,,---,0.00,VWS V15.00,2014-01-17 02:57:00,
2014-01-16 20:58:00,32.2,14.2,30.14,North,11,10.0,14.0,47,0.00,,---,0.00,VWS V15.00,2014-01-17 02:58:00,
2014-01-16 20:59:00,32.2,14.2,30.14,NNW,340,7.0,14.0,47,0.00,,---,0.00,VWS V15.00,2014-01-17 02:59:00,
2014-01-16 21:00:00,32.2,14.2,30.14,NNE,17,4.0,14.0,47,0.00,,---,0.00,VWS V15.00,2014-01-17 03:00:00,
2014-01-16 21:01:00,32.1,14.2,30.14,NNE,15,6.0,7.0,47,0.00,,---,0.00,VWS V15.00,2014-01-17 03:01:00,
2014-01-16 21:02:00,31.9,14.0,30.14,North,355,5.0,11.0,47,0.00,,---,0.00,VWS V15.00,2014-01-17 03:02:00,
2014-01-16 21:03:00,31.9,14.0,30.14,NNE,19,5.0,11.0,47,0.00,,---,0.00,VWS V15.00,2014-01-17 03:03:00,
2014-01-16 21:04:00,31.9,14.0,30.14,NNW,329,4.0,11.0,47,0.00,,---,0.00,VWS V15.00,2014-01-17 03:04:00,
2014-01-16 21:05:00,31.8,14.4,30.14,NW,321,5.0,11.0,48,0.00,,---,0.00,VWS V15.00,2014-01-17 03:05:00,
2014-01-16 21:06:00,31.8,14.4,30.14,North,5,5.0,11.0,48,0.00,,---,0.00,VWS V15.00,2014-01-17 03:06:00,
2014-01-16 21:07:00,31.6,14.2,30.14,North,355,12.0,15.0,48,0.00,,---,0.00,VWS V15.00,2014-01-17 03:07:00,
2014-01-16 21:08:00,31.6,14.2,30.14,North,355,4.0,15.0,48,0.00,,---,0.00,VWS V15.00,2014-01-17 03:08:00,
2014-01-16 21:09:00,31.6,14.2,30.14,NNW,328,4.0,15.0,48,0.00,,---,0.00,VWS V15.00,2014-01-17 03:09:00,
2014-01-16 21:10:00,31.5,14.1,30.14,North,0,6.0,15.0,48,0.00,,---,0.00,VWS V15.00,2014-01-17 03:10:00,
2014-01-16 21:11:00,31.5,14.1,30.14,NNW,348,6.0,10.0,48,0.00,,---,0.00,VWS V15.00,2014-01-17 03:11:00,
2014-01-16 21:12:00,31.3,13.9,30.14,NNW,346,6.0,10.0,48,0.00,,---,0.00,VWS V15.00,2014-01-17 03:12:00,
2014-01-16 21:13:00,31.3,13.9,30.14,NW,325,5.0,13.0,48,0.00,,---,0.00,VWS V15.00,2014-01-17 03:13:00,
2014-01-16 21:14:00,31.3,13.9,30.14,NNW,340,6.0,13.0,48,0.00,,---,0.00,VWS V15.00,2014-01-17 03:14:00,
2014-01-16 21:16:00,31.2,13.8,30.15,NW,317,10.0,13.0,48,0.00,,---,0.00,VWS V15.00,2014-01-17 03:16:00,
2014-01-16 21:17:00,31.0,13.6,30.15,North,9,6.0,13.0,48,0.00,,---,0.00,VWS V15.00,2014-01-17 03:17:00,
2014-01-16 21:18:00,31.0,13.6,30.15,NW,321,8.0,13.0,48,0.00,,---,0.00,VWS V15.00,2014-01-17 03:18:00,
2014-01-16 21:19:00,31.0,13.6,30.15,NNE,15,9.0,13.0,48,0.00,,---,0.00,VWS V15.00,2014-01-17 03:19:00,
2014-01-16 21:20:00,31.0,13.6,30.15,North,0,6.0,13.0,48,0.00,,---,0.00,VWS V15.00,2014-01-17 03:20:00,
2014-01-16 21:21:00,30.9,13.5,30.15,NNW,337,6.0,10.0,48,0.00,,---,0.00,VWS V15.00,2014-01-17 03:21:00,
2014-01-16 21:22:00,30.9,13.5,30.15,North,9,5.0,11.0,48,0.00,,---,0.00,VWS V15.00,2014-01-17 03:22:00,
2014-01-16 21:23:00,30.9,13.5,30.15,NNW,348,5.0,11.0,48,0.00,,---,0.00,VWS V15.00,2014-01-17 03:23:00,
2014-01-16 21:24:00,30.9,13.5,30.15,North,360,11.0,12.0,48,0.00,,---,0.00,VWS V15.00,2014-01-17 03:24:00,
2014-01-16 21:25:00,30.7,12.9,30.15,North,360,4.0,12.0,47,0.00,,---,0.00,VWS V15.00,2014-01-17 03:25:00,
2014-01-16 21:26:00,30.7,13.4,30.15,North,5,5.0,12.0,48,0.00,,---,0.00,VWS V15.00,2014-01-17 03:26:00,
2014-01-16 21:27:00,30.7,12.9,30.15,North,5,13.0,14.0,47,0.00,,---,0.00,VWS V15.00,2014-01-17 03:27:00,
2014-01-16 21:28:00,30.7,12.9,30.15,NNW,328,10.0,14.0,47,0.00,,---,0.00,VWS V15.00,2014-01-17 03:28:00,
2014-01-16 21:29:00,30.6,12.8,30.15,North,355,5.0,14.0,47,0.00,,---,0.00,VWS V15.00,2014-01-17 03:29:00,
2014-01-16 21:30:00,30.6,12.8,30.16,NNW,344,11.0,14.0,47,0.00,,---,0.00,VWS V15.00,2014-01-17 03:30:00,
2014-01-16 21:31:00,30.6,12.8,30.16,WNW,296,4.0,17.0,47,0.00,,---,0.00,VWS V15.00,2014-01-17 03:31:00,
2014-01-16 21:32:00,30.6,12.8,30.16,North,360,4.0,17.0,47,0.00,,---,0.00,VWS V15.00,2014-01-17 03:32:00,
2014-01-16 21:33:00,30.6,12.8,30.16,NNW,340,5.0,17.0,47,0.00,,---,0.00,VWS V15.00,2014-01-17 03:33:00,
2014-01-16 21:34:00,30.4,12.6,30.16,NNW,340,13.0,17.0,47,0.00,,---,0.00,VWS V15.00,2014-01-17 03:34:00,
2014-01-16 21:35:00,30.4,12.6,30.16,North,350,12.0,17.0,47,0.00,,---,0.00,VWS V15.00,2014-01-17 03:35:00,
2014-01-16 21:36:00,30.4,12.6,30.16,NNW,338,11.0,17.0,47,0.00,,---,0.00,VWS V15.00,2014-01-17 03:36:00,
2014-01-16 21:37:00,30.4,12.6,30.16,NNW,342,6.0,17.0,47,0.00,,---,0.00,VWS V15.00,2014-01-17 03:37:00,
2014-01-16 21:38:00,30.4,12.6,30.16,NW,304,12.0,17.0,47,0.00,,---,0.00,VWS V15.00,2014-01-17 03:38:00,
2014-01-16 21:39:00,30.4,12.6,30.16,NW,306,7.0,17.0,47,0.00,,---,0.00,VWS V15.00,2014-01-17 03:39:00,
2014-01-16 21:40:00,30.4,12.6,30.16,NNW,344,6.0,17.0,47,0.00,,---,0.00,VWS V15.00,2014-01-17 03:40:00,
2014-01-16 21:41:00,30.4,12.6,30.16,WNW,291,6.0,15.0,47,0.00,,---,0.00,VWS V15.00,2014-01-17 03:41:00,
2014-01-16 21:42:00,30.4,12.6,30.16,NW,304,10.0,15.0,47,0.00,,---,0.00,VWS V15.00,2014-01-17 03:42:00,
2014-01-16 21:43:00,30.4,12.6,30.16,NW,321,8.0,20.0,47,0.00,,---,0.00,VWS V15.00,2014-01-17 03:43:00,
2014-01-16 21:44:00,30.4,12.6,30.16,NNW,338,4.0,20.0,47,0.00,,---,0.00,VWS V15.00,2014-01-17 03:44:00,
2014-01-16 21:45:00,30.4,12.6,30.16,NNE,22,11.0,20.0,47,0.00,,---,0.00,VWS V15.00,2014-01-17 03:45:00,
2014-01-16 21:47:00,30.4,12.6,30.16,NW,317,5.0,20.0,47,0.00,,---,0.00,VWS V15.00,2014-01-17 03:47:00,
2014-01-16 21:48:00,30.4,12.6,30.16,NNW,329,3.0,20.0,47,0.00,,---,0.00,VWS V15.00,2014-01-17 03:48:00,
2014-01-16 21:49:00,30.4,12.6,30.16,WNW,287,12.0,20.0,47,0.00,,---,0.00,VWS V15.00,2014-01-17 03:49:00,
2014-01-16 21:50:00,30.4,12.6,30.16,NW,323,14.0,15.0,47,0.00,,---,0.00,VWS V15.00,2014-01-17 03:50:00,
2014-01-16 21:52:00,30.4,12.1,30.16,NNW,331,9.0,15.0,46,0.00,,---,0.00,VWS V15.00,2014-01-17 03:52:00,
2014-01-16 21:53:00,30.4,12.1,30.16,NW,312,5.0,15.0,46,0.00,,---,0.00,VWS V15.00,2014-01-17 03:53:00,
2014-01-16 21:54:00,30.4,12.1,30.16,NNW,345,5.0,15.0,46,0.00,,---,0.00,VWS V15.00,2014-01-17 03:54:00,
2014-01-16 21:55:00,30.4,12.1,30.16,NNW,327,8.0,15.0,46,0.00,,---,0.00,VWS V15.00,2014-01-17 03:55:00,
2014-01-16 21:57:00,30.4,12.1,30.16,NNW,335,9.0,19.0,46,0.00,,---,0.00,VWS V15.00,2014-01-17 03:57:00,
2014-01-16 21:58:00,30.4,11.6,30.16,WNW,295,10.0,20.0,45,0.00,,---,0.00,VWS V15.00,2014-01-17 03:58:00,
2014-01-16 21:59:00,30.4,11.6,30.16,NNW,327,8.0,20.0,45,0.00,,---,0.00,VWS V15.00,2014-01-17 03:59:00,
2014-01-16 22:00:00,30.4,12.1,30.16,NNW,338,8.0,23.0,46,0.00,,---,0.00,VWS V15.00,2014-01-17 04:00:00,
2014-01-16 22:01:00,30.4,11.6,30.16,NW,323,12.0,21.0,45,0.00,,---,0.00,VWS V15.00,2014-01-17 04:01:00,
2014-01-16 22:02:00,30.4,11.6,30.16,NNW,332,7.0,21.0,45,0.00,,---,0.00,VWS V15.00,2014-01-17 04:02:00,
2014-01-16 22:03:00,30.4,11.6,30.16,WNW,298,16.0,21.0,45,0.00,,---,0.00,VWS V15.00,2014-01-17 04:03:00,
2014-01-16 22:04:00,30.4,11.6,30.16,NNE,24,8.0,21.0,45,0.00,,---,0.00,VWS V15.00,2014-01-17 04:04:00,
2014-01-16 22:06:00,30.4,11.6,30.16,WNW,293,13.0,21.0,45,0.00,,---,0.00,VWS V15.00,2014-01-17 04:06:00,
2014-01-16 22:07:00,30.4,11.6,30.16,NNW,340,9.0,21.0,45,0.00,,---,0.00,VWS V15.00,2014-01-17 04:07:00,
2014-01-16 22:08:00,30.4,11.6,30.16,NW,317,6.0,21.0,45,0.00,,---,0.00,VWS V15.00,2014-01-17 04:08:00,
2014-01-16 22:09:00,30.3,11.5,30.16,NW,309,5.0,21.0,45,0.00,,---,0.00,VWS V15.00,2014-01-17 04:09:00,
2014-01-16 22:10:00,30.3,12.0,30.16,NNW,338,9.0,21.0,46,0.00,,---,0.00,VWS V15.00,2014-01-17 04:10:00,
2014-01-16 22:11:00,30.3,12.0,30.16,NNW,327,7.0,13.0,46,0.00,,---,0.00,VWS V15.00,2014-01-17 04:11:00,
2014-01-16 22:12:00,30.3,12.0,30.16,North,360,4.0,13.0,46,0.00,,---,0.00,VWS V15.00,2014-01-17 04:12:00,
2014-01-16 22:13:00,30.1,11.8,30.16,WNW,288,4.0,13.0,46,0.00,,---,0.00,VWS V15.00,2014-01-17 04:13:00,
2014-01-16 22:14:00,30.1,11.8,30.16,WNW,291,7.0,13.0,46,0.00,,---,0.00,VWS V15.00,2014-01-17 04:14:00,
2014-01-16 22:16:00,30.1,11.8,30.16,WNW,294,4.0,19.0,46,0.00,,---,0.00,VWS V15.00,2014-01-17 04:16:00,
2014-01-16 22:17:00,30.1,11.3,30.16,NW,315,15.0,20.0,45,0.00,,---,0.00,VWS V15.00,2014-01-17 04:17:00,
2014-01-16 22:18:00,30.1,11.3,30.16,North,355,11.0,20.0,45,0.00,,---,0.00,VWS V15.00,2014-01-17 04:18:00,
2014-01-16 22:20:00,30.1,11.3,30.16,NNW,335,10.0,27.0,45,0.00,,---,0.00,VWS V15.00,2014-01-17 04:20:00,
2014-01-16 22:21:00,30.0,11.2,30.16,NW,322,6.0,15.0,45,0.00,,---,0.00,VWS V15.00,2014-01-17 04:21:00,
2014-01-16 22:22:00,30.0,11.2,30.16,WNW,282,5.0,15.0,45,0.00,,---,0.00,VWS V15.00,2014-01-17 04:22:00,
2014-01-16 22:23:00,30.0,11.2,30.16,West,277,14.0,19.0,45,0.00,,---,0.00,VWS V15.00,2014-01-17 04:23:00,
2014-01-16 22:25:00,30.0,11.2,30.16,NNW,330,9.0,19.0,45,0.00,,---,0.00,VWS V15.00,2014-01-17 04:25:00,
2014-01-16 22:26:00,30.0,11.2,30.16,NNW,337,7.0,20.0,45,0.00,,---,0.00,VWS V15.00,2014-01-17 04:26:00,
2014-01-16 22:27:00,30.0,11.2,30.16,NW,320,7.0,20.0,45,0.00,,---,0.00,VWS V15.00,2014-01-17 04:27:00,
2014-01-16 22:28:00,30.0,11.2,30.16,NW,318,12.0,20.0,45,0.00,,---,0.00,VWS V15.00,2014-01-17 04:28:00,
2014-01-16 22:30:00,30.0,10.7,30.16,NNW,327,12.0,20.0,44,0.00,,---,0.00,VWS V15.00,2014-01-17 04:30:00,
2014-01-16 22:31:00,30.0,10.7,30.16,NNW,335,18.0,19.0,44,0.00,,---,0.00,VWS V15.00,2014-01-17 04:31:00,
2014-01-16 22:32:00,30.0,10.7,30.16,WNW,290,5.0,19.0,44,0.00,,---,0.00,VWS V15.00,2014-01-17 04:32:00,
2014-01-16 22:33:00,30.0,10.7,30.16,NW,322,10.0,19.0,44,0.00,,---,0.00,VWS V15.00,2014-01-17 04:33:00,
2014-01-16 22:35:00,30.0,10.7,30.16,WNW,286,6.0,19.0,44,0.00,,---,0.00,VWS V15.00,2014-01-17 04:35:00,
2014-01-16 22:36:00,30.0,11.2,30.16,NW,312,10.0,19.0,45,0.00,,---,0.00,VWS V15.00,2014-01-17 04:36:00,
2014-01-16 22:37:00,30.0,10.7,30.16,WNW,288,9.0,19.0,44,0.00,,---,0.00,VWS V15.00,2014-01-17 04:37:00,
2014-01-16 22:38:00,30.0,11.2,30.16,WNW,293,7.0,19.0,45,0.00,,---,0.00,VWS V15.00,2014-01-17 04:38:00,
2014-01-16 22:40:00,29.8,11.1,30.16,NW,320,6.0,19.0,45,0.00,,---,0.00,VWS V15.00,2014-01-17 04:40:00,
2014-01-16 22:41:00,29.8,11.1,30.16,WNW,286,15.0,15.0,45,0.00,,---,0.00,VWS V15.00,2014-01-17 04:41:00,
2014-01-16 22:42:00,29.8,10.6,30.16,NW,309,9.0,15.0,44,0.00,,---,0.00,VWS V15.00,2014-01-17 04:42:00,
2014-01-16 22:43:00,29.8,10.6,30.16,West,277,9.0,17.0,44,0.00,,---,0.00,VWS V15.00,2014-01-17 04:43:00,
2014-01-16 22:45:00,29.8,10.6,30.16,North,5,6.0,18.0,44,0.00,,---,0.00,VWS V15.00,2014-01-17 04:45:00,
2014-01-16 22:47:00,29.8,10.1,30.16,NW,324,6.0,18.0,43,0.00,,---,0.00,VWS V15.00,2014-01-17 04:47:00,
2014-01-16 22:48:00,29.8,10.1,30.16,NNW,338,9.0,21.0,43,0.00,,---,0.00,VWS V15.00,2014-01-17 04:48:00,
2014-01-16 22:50:00,29.8,10.1,30.16,WNW,300,6.0,22.0,43,0.00,,---,0.00,VWS V15.00,2014-01-17 04:50:00,
2014-01-16 22:52:00,29.8,10.1,30.16,WNW,288,11.0,24.0,43,0.00,,---,0.00,VWS V15.00,2014-01-17 04:52:00,
2014-01-16 22:53:00,30.0,9.7,30.16,NW,315,15.0,26.0,42,0.00,,---,0.00,VWS V15.00,2014-01-17 04:53:00,
2014-01-16 22:55:00,30.0,9.7,30.16,NW,314,5.0,26.0,42,0.00,,---,0.00,VWS V15.00,2014-01-17 04:55:00,
2014-01-16 22:57:00,30.0,9.7,30.16,NW,311,15.0,26.0,42,0.00,,---,0.00,VWS V15.00,2014-01-17 04:57:00,
2014-01-16 22:58:00,30.0,9.7,30.16,NNW,343,6.0,26.0,42,0.00,,---,0.00,VWS V15.00,2014-01-17 04:58:00,
2014-01-16 23:00:00,30.0,9.7,30.17,West,279,11.0,26.0,42,0.00,,---,0.00,VWS V15.00,2014-01-17 05:00:00,
2014-01-16 23:01:00,30.0,9.2,30.17,NW,325,6.0,18.0,41,0.00,,---,0.00,VWS V15.00,2014-01-17 05:01:00,
2014-01-16 23:06:00,29.8,9.5,30.17,WNW,301,9.0,21.0,42,0.00,,---,0.00,VWS V15.00,2014-01-17 05:06:00,
2014-01-16 23:07:00,29.8,9.5,30.17,WNW,289,9.0,21.0,42,0.00,,---,0.00,VWS V15.00,2014-01-17 05:07:00,
2014-01-16 23:10:00,29.7,8.9,30.17,NW,315,11.0,24.0,41,0.00,,---,0.00,VWS V15.00,2014-01-17 05:10:00,
2014-01-16 23:11:00,29.7,8.9,30.17,NW,309,5.0,19.0,41,0.00,,---,0.00,VWS V15.00,2014-01-17 05:11:00,
2014-01-16 23:12:00,29.7,8.9,30.17,NW,307,22.0,22.0,41,0.00,,---,0.00,VWS V15.00,2014-01-17 05:12:00,
2014-01-16 23:16:00,29.7,8.4,30.17,NW,323,8.0,23.0,40,0.00,,---,0.00,VWS V15.00,2014-01-17 05:16:00,
2014-01-16 23:17:00,29.7,7.2,30.17,NNW,327,15.0,23.0,38,0.00,,---,0.00,VWS V15.00,2014-01-17 05:17:00,
2014-01-16 23:18:00,29.7,8.4,30.17,NNW,333,14.0,30.0,40,0.00,,---,0.00,VWS V15.00,2014-01-17 05:18:00,
2014-01-16 23:20:00,29.7,8.4,30.17,NW,315,13.0,30.0,40,0.00,,---,0.00,VWS V15.00,2014-01-17 05:20:00,
2014-01-16 23:21:00,29.7,8.4,30.17,NW,305,10.0,16.0,40,0.00,,---,0.00,VWS V15.00,2014-01-17 05:21:00,
2014-01-16 23:22:00,29.5,8.2,30.17,NW,306,11.0,16.0,40,0.00,,---,0.00,VWS V15.00,2014-01-17 05:22:00,
2014-01-16 23:23:00,29.5,8.2,30.17,North,360,5.0,25.0,40,0.00,,---,0.00,VWS V15.00,2014-01-17 05:23:00,
2014-01-16 23:26:00,29.4,8.1,30.17,NNW,331,11.0,25.0,40,0.00,,---,0.00,VWS V15.00,2014-01-17 05:26:00,
2014-01-16 23:27:00,29.4,8.1,30.17,WNW,303,13.0,25.0,40,0.00,,---,0.00,VWS V15.00,2014-01-17 05:27:00,
2014-01-16 23:28:00,29.4,8.1,30.17,NNW,338,13.0,25.0,40,0.00,,---,0.00,VWS V15.00,2014-01-17 05:28:00,
2014-01-16 23:30:00,29.3,8.0,30.17,NW,315,9.0,25.0,40,0.00,,---,0.00,VWS V15.00,2014-01-17 05:30:00,
2014-01-16 23:31:00,29.3,8.5,30.17,NNW,329,13.0,14.0,41,0.00,,---,0.00,VWS V15.00,2014-01-17 05:31:00,
2014-01-16 23:32:00,29.3,8.5,30.17,NNW,331,15.0,19.0,41,0.00,,---,0.00,VWS V15.00,2014-01-17 05:32:00,
2014-01-16 23:33:00,29.3,8.5,30.17,NW,313,8.0,19.0,41,0.00,,---,0.00,VWS V15.00,2014-01-17 05:33:00,
2014-01-16 23:36:00,29.1,8.4,30.17,NW,313,7.0,19.0,41,0.00,,---,0.00,VWS V15.00,2014-01-17 05:36:00,
2014-01-16 23:37:00,29.0,8.8,30.17,WNW,302,5.0,19.0,42,0.00,,---,0.00,VWS V15.00,2014-01-17 05:37:00,
2014-01-16 23:38:00,29.0,8.8,30.17,WNW,300,6.0,19.0,42,0.00,,---,0.00,VWS V15.00,2014-01-17 05:38:00,
2014-01-16 23:40:00,29.0,8.8,30.17,NW,315,9.0,19.0,42,0.00,,---,0.00,VWS V15.00,2014-01-17 05:40:00,
2014-01-16 23:41:00,28.8,8.1,30.17,NW,325,4.0,19.0,41,0.00,,---,0.00,VWS V15.00,2014-01-17 05:41:00,
2014-01-16 23:42:00,28.8,8.1,30.17,NNW,348,6.0,19.0,41,0.00,,---,0.00,VWS V15.00,2014-01-17 05:42:00,
2014-01-16 23:43:00,28.8,8.6,30.17,NNW,338,15.0,19.0,42,0.00,,---,0.00,VWS V15.00,2014-01-17 05:43:00,
2014-01-16 23:46:00,28.8,8.6,30.17,NNW,336,6.0,19.0,42,0.00,,---,0.00,VWS V15.00,2014-01-17 05:46:00,
2014-01-16 23:47:00,28.8,8.1,30.17,NNW,327,5.0,19.0,41,0.00,,---,0.00,VWS V15.00,2014-01-17 05:47:00,
2014-01-16 23:49:00,28.7,8.0,30.17,NW,306,6.0,19.0,41,0.00,,---,0.00,VWS V15.00,2014-01-17 05:49:00,
2014-01-16 23:50:00,28.7,8.0,30.17,NW,315,8.0,19.0,41,0.00,,---,0.00,VWS V15.00,2014-01-17 05:50:00,
2014-01-16 23:51:00,28.7,8.0,30.17,NNW,348,14.0,20.0,41,0.00,,---,0.00,VWS V15.00,2014-01-17 05:51:00,
2014-01-16 23:52:00,28.7,8.0,30.17,NNW,346,9.0,20.0,41,0.00,,---,0.00,VWS V15.00,2014-01-17 05:52:00,
2014-01-16 23:54:00,28.7,8.5,30.17,NW,309,4.0,20.0,42,0.00,,---,0.00,VWS V15.00,2014-01-17 05:54:00,
2014-01-16 23:56:00,28.5,8.3,30.17,WNW,283,7.0,20.0,42,0.00,,---,0.00,VWS V15.00,2014-01-17 05:56:00,
2014-01-16 23:57:00,28.5,8.3,30.17,WNW,286,11.0,20.0,42,0.00,,---,0.00,VWS V15.00,2014-01-17 05:57:00,
2014-01-16 23:59:00,28.5,8.3,30.17,NW,319,7.0,20.0,42,0.00,,---,0.00,VWS V15.00,2014-01-17 05:59:00,